ECMWFFLT2_850_temp_024.txt.gz
Temp
5 6 6 6 6 7 7 7 8 8 8 7 8 8 8 7 7 8 8 8 8 8 8 8 8 8 8 8 8 8 8 9 9 8 8 8 8 8 8 8 8 7 7 7 6 7 7 7 7 7 7 7
5 5 5 5 6 6 6 7 7 7 7 7 7 7 7 7 7 7 7 7 8 8 8 7 7 8 7 7 8 8 8 8 9 9 8 8 7 8 8 8 8 7 7 7 6 6 7 7 7 7 7 7
5 5 5 5 5 5 6 6 6 6 6 6 6 6 7 7 7 7 7 7 7 7 7 7 7 7 7 7 7 7 7 8 8 8 8 8 8 7 7 7 7 7 7 7 6 6 6 7 7 7 7 7
5 5 5 5 5 5 5 5 5 5 5 5 6 6 6 6 6 7 7 7 7 7 7 7 7 7 7 7 7 7 7 7 8 8 8 8 8 7 7 7 7 7 7 7 6 6 6 6 7 7 7 7
5 5 5 5 5 5 5 5 5 5 5 5 5 5 5 6 6 6 6 7 7 7 7 7 7 7 7 7 7 7 7 7 7 8 8 9 8 8 7 7 7 7 7 7 6 6 6 6 6 7 7 6
4 4 4 4 4 5 5 5 5 5 5 5 5 5 5 5 6 6 6 6 6 6 6 6 6 7 7 7 7 7 7 7 7 7 8 8 8 8 7 7 7 7 6 6 6 6 6 6 6 7 7 6
3 4 4 4 4 4 4 4 5 5 5 5 5 5 5 5 5 5 6 6 6 6 6 6 6 6 6 7 7 7 7 7 6 7 7 8 8 8 8 7 7 7 6 6 6 6 6 6 6 6 7 7
3 3 3 3 4 4 4 4 4 4 5 5 5 5 5 5 5 5 5 5 5 5 6 6 6 6 6 6 6 6 7 6 6 6 6 7 7 8 8 7 7 7 6 6 6 6 6 6 6 6 7 7
3 3 3 3 3 3 3 4 4 4 4 4 4 5 5 5 5 5 6 5 5 5 5 5 5 5 6 6 6 6 6 6 6 6 6 6 7 7 8 8 7 7 6 6 6 6 6 5 6 6 6 7
2 2 3 3 3 3 3 3 3 4 4 4 4 4 4 5 5 5 5 5 5 5 4 4 5 5 5 5 5 5 6 6 6 6 6 6 6 6 7 7 7 7 6 6 6 6 6 5 6 6 6 6
2 2 2 2 3 3 3 3 3 4 4 4 4 4 4 4 4 5 5 5 5 5 5 4 4 4 5 5 5 5 5 5 5 6 6 6 6 6 6 7 7 7 6 6 6 6 6 6 6 6 6 6
1 1 2 2 2 3 3 3 3 3 3 3 3 3 3 3 4 4 4 4 4 5 5 5 5 5 4 4 4 4 4 5 5 5 6 5 5 5 5 6 6 7 7 6 7 6 6 6 6 6 6 6
1 1 1 1 1 1 2 2 2 3 3 3 3 3 3 3 3 3 3 3 3 4 4 4 4 4 5 5 4 4 4 4 5 5 5 5 5 5 5 5 5 6 7 7 7 7 6 6 6 6 5 5
-0 -0 -0 -0 -0 -0 -0 0 1 1 1 2 2 2 2 2 2 2 2 2 3 3 3 4 4 3 4 4 4 4 4 4 4 5 5 5 5 5 5 5 5 5 6 6 7 7 6 6 6 5 5 5
-2 -2 -1 -1 -2 -2 -2 -1 -1 -1 -0 0 0 1 1 1 1 1 1 1 2 2 2 3 3 3 3 3 3 4 4 4 4 4 5 5 4 5 5 5 4 5 5 6 6 6 6 6 6 5 5 5
-2 -2 -3 -2 -3 -3 -3 -3 -2 -2 -2 -1 -1 -1 -0 -0 -0 0 0 0 1 1 1 1 2 2 3 3 3 3 3 3 4 4 5 5 4 4 4 4 4 4 4 5 5 6 6 6 6 5 5 4
-3 -3 -3 -3 -3 -3 -3 -3 -3 -3 -3 -3 -2 -2 -2 -1 -1 -1 -1 -1 -0 -0 -0 0 1 1 2 2 3 3 3 3 3 4 4 5 4 4 4 4 4 4 4 4 5 5 6 6 6 5 5 4
-4 -3 -4 -4 -4 -4 -4 -4 -4 -4 -4 -3 -3 -3 -3 -3 -2 -2 -2 -2 -1 -1 -1 -1 -1 -0 0 1 2 2 2 2 2 3 3 4 4 4 4 4 4 4 3 4 4 5 5 6 6 6 5 4
-4 -4 -4 -4 -4 -5 -5 -5 -5 -5 -4 -4 -4 -3 -3 -3 -3 -3 -3 -3 -2 -2 -2 -3 -2 -2 -1 -1 0 1 1 1 2 2 2 3 4 4 4 4 4 4 4 3 3 4 5 5 5 5 5 5
-5 -5 -5 -5 -5 -5 -5 -5 -5 -5 -5 -5 -4 -4 -4 -4 -4 -3 -3 -3 -3 -3 -3 -3 -3 -3 -3 -2 -2 -1 -1 -0 0 1 1 1 2 3 3 3 3 3 3 3 3 3 4 4 5 5 5 5
-6 -5 -5 -5 -5 -5 -5 -6 -5 -6 -6 -5 -5 -5 -5 -4 -4 -4 -4 -4 -4 -4 -4 -4 -4 -3 -3 -3 -3 -3 -2 -2 -2 -1 -0 0 0 1 2 2 3 3 3 3 3 3 3 4 4 4 5 5
-6 -6 -5 -6 -6 -6 -6 -6 -6 -6 -6 -6 -6 -5 -5 -5 -5 -4 -4 -4 -4 -4 -4 -4 -4 -4 -4 -4 -4 -4 -3 -3 -3 -2 -2 -1 -1 -0 1 1 2 2 2 3 3 2 2 3 3 4 4 4
-7 -7 -6 -6 -6 -6 -6 -6 -6 -6 -6 -6 -6 -6 -6 -6 -5 -5 -5 -5 -5 -5 -5 -5 -4 -4 -4 -4 -4 -4 -4 -4 -3 -3 -3 -3 -2 -2 -1 0 1 1 1 2 2 2 2 2 3 3 4 4
-7 -7 -7 -7 -7 -7 -7 -7 -7 -7 -7 -7 -7 -6 -6 -6 -6 -5 -5 -5 -5 -5 -5 -5 -5 -5 -4 -4 -4 -4 -4 -4 -4 -4 -4 -3 -3 -3 -2 -1 -1 -0 0 0 1 2 1 1 2 2 3 3
-8 -8 -8 -8 -8 -8 -8 -8 -8 -8 -8 -7 -7 -7 -7 -7 -6 -6 -6 -6 -5 -5 -5 -5 -5 -5 -5 -5 -4 -4 -4 -4 -4 -4 -4 -4 -4 -3 -3 -2 -2 -1 -1 -1 -0 1 1 1 1 2 2 3
-9 -8 -8 -8 -9 -9 -9 -9 -9 -8 -8 -8 -8 -7 -7 -7 -7 -7 -6 -6 -6 -6 -6 -6 -5 -5 -5 -5 -5 -4 -4 -4 -5 -5 -5 -5 -4 -4 -4 -3 -3 -2 -2 -1 -1 -0 -0 -0 0 1 1 2
-9 -9 -9 -9 -9 -9 -9 -9 -9 -9 -9 -9 -8 -8 -8 -8 -7 -7 -7 -7 -7 -7 -6 -6 -6 -6 -5 -5 -5 -5 -5 -5 -5 -5 -5 -5 -5 -5 -5 -4 -4 -3 -3 -2 -2 -1 -1 -1 -0 -0 0 1
-10 -10 -10 -10 -10 -10 -10 -9 -9 -9 -9 -9 -9 -9 -9 -8 -8 -8 -8 -8 -8 -7 -7 -7 -6 -6 -6 -6 -6 -6 -5 -5 -5 -5 -5 -5 -5 -5 -5 -5 -4 -4 -3 -3 -2 -2 -2 -1 -1 -1 0 1
-11 -11 -11 -11 -11 -11 -11 -10 -9 -9 -9 -9 -10 -10 -10 -9 -9 -8 -8 -8 -8 -8 -8 -7 -7 -7 -6 -7 -7 -6 -6 -6 -6 -5 -5 -5 -5 -5 -5 -5 -5 -5 -4 -3 -3 -3 -2 -2 -1 -1 0 1
-11 -11 -12 -12 -12 -12 -12 -11 -11 -11 -10 -10 -10 -10 -10 -10 -9 -9 -9 -9 -9 -9 -8 -8 -8 -7 -7 -7 -7 -7 -6 -6 -6 -6 -5 -5 -5 -5 -5 -5 -5 -5 -5 -4 -4 -3 -3 -2 -2 -1 -1 -1
-11 -12 -12 -12 -12 -13 -13 -12 -12 -12 -12 -11 -11 -11 -11 -10 -9 -9 -9 -9 -9 -9 -9 -8 -8 -8 -8 -7 -8 -7 -7 -7 -6 -6 -6 -6 -6 -5 -5 -6 -6 -6 -5 -5 -4 -4 -3 -3 -3 -2 -2 -2

ECMWFFLT2_850_temp_030.txt.gz
Temp
5 5 5 5 5 5 5 5 5 5 5 6 6 5 5 6 6 6 6 7 7 7 7 8 8 8 8 8 8 8 8 8 8 8 8 8 8 8 8 8 8 9 8 8 7 7 8 8 8 8 8 8
4 4 4 4 5 5 4 4 4 4 5 5 5 5 5 5 5 5 5 6 6 6 7 7 7 7 8 8 8 8 8 8 8 8 8 8 8 8 8 8 8 8 8 8 7 7 8 8 8 7 7 8
4 4 4 4 4 4 4 4 4 4 4 4 4 4 4 4 4 4 5 5 5 6 6 6 7 7 7 7 7 7 7 7 7 7 8 7 7 8 8 8 8 8 8 8 8 7 7 7 7 7 7 8
3 3 3 3 3 4 4 4 3 3 3 4 4 3 3 4 4 4 4 4 5 5 5 6 6 6 6 7 7 7 7 7 7 7 7 7 7 8 8 8 8 8 8 8 8 7 7 7 7 7 7 7
3 3 3 3 3 3 3 3 3 3 3 3 3 3 3 3 3 3 3 4 4 4 5 5 5 5 5 6 6 6 7 7 7 7 7 7 7 7 7 7 7 7 7 8 8 8 7 7 7 7 7 7
2 2 3 3 3 3 3 3 3 3 3 3 3 3 3 3 3 3 3 3 3 4 4 5 5 5 5 5 6 6 6 6 6 6 7 7 7 7 7 7 7 7 7 7 7 7 7 7 7 7 7 7
2 2 2 3 3 3 3 3 3 3 3 3 3 3 3 3 3 3 3 3 3 3 4 4 5 5 5 5 5 5 5 6 6 6 6 6 6 6 6 7 7 7 7 7 7 7 7 7 7 7 7 7
1 2 2 2 2 3 3 3 3 3 3 3 3 3 3 3 2 2 3 3 3 3 4 4 4 4 5 5 5 5 5 5 5 5 6 6 6 6 6 6 6 7 7 7 7 7 7 7 7 7 7 7
1 1 1 1 2 2 2 3 3 3 3 3 3 3 3 3 3 3 3 3 3 4 4 4 4 4 4 5 5 5 5 5 5 5 5 6 6 6 6 6 6 6 6 7 7 7 7 6 6 7 7 7
-0 0 0 1 1 1 2 2 2 3 3 3 3 3 3 3 4 4 4 4 4 4 4 4 4 4 4 4 4 5 5 5 5 5 5 6 6 6 6 6 6 6 6 6 7 6 6 6 6 6 6 7
-1 -1 -1 -1 -0 0 1 1 1 2 2 2 2 2 3 3 3 3 4 4 4 4 4 4 4 4 4 4 4 4 5 5 5 5 5 6 6 6 6 6 6 6 6 6 6 6 6 6 6 6 6 6
-2 -2 -1 -1 -1 -1 -1 -0 -0 0 0 1 1 2 2 2 2 2 2 3 3 4 4 4 4 4 4 4 4 3 4 4 5 5 5 5 5 6 6 6 6 6 6 6 6 6 6 6 5 5 6 6
-2 -2 -2 -2 -2 -2 -2 -2 -2 -1 -1 -1 -0 0 1 1 1 1 1 1 2 2 3 3 4 4 4 4 4 4 4 4 4 5 5 5 5 5 6 6 6 6 6 6 5 6 5 6 6 5 5 5
-3 -3 -2 -2 -2 -2 -2 -2 -3 -3 -3 -3 -2 -1 -0 -0 0 0 0 0 0 0 1 2 2 3 3 4 4 4 4 4 4 4 4 5 5 5 6 6 6 6 6 6 6 6 5 5 6 5 5 5
-3 -3 -3 -3 -3 -3 -3 -3 -3 -3 -4 -4 -4 -3 -2 -2 -1 -1 -1 -1 -1 -1 -1 -0 0 1 1 2 2 3 3 3 4 4 4 4 4 5 5 6 6 6 6 6 6 6 6 5 5 5 5 6
-4 -4 -4 -4 -3 -3 -3 -3 -3 -4 -4 -5 -5 -5 -4 -3 -3 -3 -3 -2 -2 -2 -2 -2 -1 -1 -1 -0 0 1 1 2 2 3 3 2 3 4 4 5 5 6 6 6 6 6 6 5 5 5 5 5
-5 -5 -5 -5 -4 -4 -4 -4 -4 -4 -5 -5 -5 -5 -5 -4 -4 -4 -4 -3 -3 -2 -2 -2 -2 -2 -1 -1 -1 -1 -0 0 1 1 2 2 2 2 3 4 4 5 5 5 5 5 6 6 6 5 5 5
-6 -6 -6 -6 -5 -5 -5 -5 -5 -5 -5 -6 -6 -5 -5 -5 -5 -5 -5 -4 -4 -3 -3 -3 -3 -2 -2 -2 -2 -1 -1 -1 -1 -0 0 1 1 2 2 3 3 4 4 5 5 5 5 5 6 5 5 5
-7 -7 -7 -6 -6 -6 -6 -6 -6 -6 -6 -6 -6 -6 -6 -6 -6 -6 -6 -6 -5 -5 -4 -4 -4 -3 -3 -3 -2 -2 -2 -2 -2 -2 -1 -1 -0 1 1 2 2 3 3 4 4 4 4 5 5 5 5 5
-8 -8 -8 -7 -7 -7 -7 -7 -7 -7 -7 -7 -7 -7 -7 -7 -7 -7 -7 -7 -6 -6 -6 -5 -5 -4 -4 -3 -3 -3 -2 -2 -3 -3 -3 -3 -2 -1 -0 1 1 1 2 3 3 4 4 4 4 5 5 5
-8 -8 -8 -8 -8 -8 -8 -7 -7 -7 -7 -7 -7 -7 -7 -7 -7 -7 -7 -7 -7 -7 -7 -6 -6 -5 -5 -4 -4 -3 -3 -3 -3 -3 -3 -3 -3 -3 -2 -1 -0 0 1 1 2 2 3 3 4 4 4 5
-9 -9 -9 -9 -9 -9 -8 -8 -8 -8 -8 -8 -8 -8 -8 -8 -7 -8 -8 -8 -8 -8 -7 -7 -7 -6 -6 -5 -4 -4 -4 -4 -4 -4 -4 -4 -4 -4 -4 -3 -2 -1 -0 0 1 1 2 2 3 3 3 4
-9 -9 -9 -9 -9 -9 -9 -9 -9 -9 -9 -9 -9 -9 -9 -9 -8 -8 -8 -8 -8 -8 -8 -8 -7 -7 -6 -6 -5 -5 -5 -5 -5 -5 -4 -4 -4 -4 -4 -4 -4 -3 -2 -1 -0 0 1 1 2 2 3 3
-10 -10 -9 -9 -9 -9 -9 -9 -9 -9 -9 -9 -9 -9 -9 -9 -9 -9 -9 -9 -9 -8 -9 -8 -8 -7 -7 -7 -6 -6 -6 -5 -5 -5 -5 -5 -5 -5 -5 -4 -4 -4 -4 -3 -2 -1 -0 1 1 1 2 2
-10 -10 -10 -10 -10 -10 -10 -10 -10 -10 -10 -9 -9 -9 -9 -9 -9 -9 -9 -9 -9 -9 -9 -9 -8 -8 -8 -7 -7 -6 -6 -6 -6 -6 -6 -5 -5 -5 -5 -5 -4 -4 -4 -4 -3 -2 -2 -1 0 0 1 1
-10 -10 -10 -10 -10 -10 -10 -10 -10 -10 -10 -10 -10 -9 -9 -9 -9 -10 -10 -10 -10 -10 -10 -9 -9 -8 -8 -8 -8 -7 -7 -7 -6 -6 -6 -6 -6 -5 -5 -5 -5 -4 -4 -4 -4 -3 -3 -2 -1 -0 0 1
-10 -10 -10 -10 -11 -11 -10 -11 -11 -11 -11 -11 -11 -10 -10 -10 -10 -10 -10 -10 -10 -10 -11 -10 -9 -9 -8 -8 -8 -8 -8 -7 -7 -7 -7 -6 -6 -6 -5 -5 -5 -5 -5 -4 -4 -3 -3 -2 -2 -1 -0 0
-10 -11 -11 -11 -11 -11 -11 -11 -11 -11 -11 -12 -12 -12 -12 -11 -11 -11 -11 -11 -11 -11 -11 -10 -10 -9 -9 -9 -8 -8 -8 -8 -8 -7 -7 -7 -7 -6 -6 -5 -5 -5 -5 -5 -4 -4 -3 -2 -2 -1 -0 0
-11 -11 -11 -11 -11 -12 -12 -12 -12 -12 -12 -12 -12 -12 -12 -12 -12 -12 -12 -12 -11 -11 -11 -11 -10 -9 -9 -9 -9 -8 -8 -8 -8 -8 -8 -7 -7 -7 -6 -6 -6 -5 -5 -5 -5 -4 -3 -3 -2 -1 -1 -1
-11 -11 -11 -12 -12 -12 -12 -12 -12 -12 -12 -12 -12 -13 -13 -13 -13 -13 -12 -12 -12 -12 -12 -12 -11 -10 -10 -9 -9 -9 -8 -8 -8 -8 -8 -8 -8 -7 -7 -7 -6 -6 -6 -6 -5 -5 -5 -4 -3 -2 -3 -3
-11 -12 -12 -12 -13 -13 -13 -13 -13 -13 -13 -13 -13 -13 -13 -13 -13 -13 -13 -13 -13 -13 -12 -12 -12 -11 -10 -10 -10 -9 -9 -9 -8 -8 -9 -8 -8 -8 -8 -7 -7 -7 -7 -6 -6 -5 -5 -5 -5 -4 -4 -4

ECMWFFLT2_850_temp_033.txt.gz
Temp
4 4 4 4 4 5 5 5 5 5 6 6 6 5 6 6 6 7 7 7 7 7 7 7 7 7 8 8 8 8 8 8 8 8 8 8 8 8 8 9 9 8 8 8 8 8 9 9 9 8 8 9
3 3 4 4 4 4 4 4 5 5 5 5 5 5 5 5 5 6 6 6 6 6 6 7 7 7 7 8 8 8 8 8 8 8 8 8 8 8 8 8 8 8 8 8 8 8 8 8 8 8 8 8
2 3 3 3 3 3 3 4 4 4 4 4 4 4 5 5 5 5 5 5 5 5 5 5 6 6 6 7 7 7 7 7 8 8 8 8 8 8 8 8 8 8 8 8 8 8 8 8 8 8 8 8
2 2 3 3 3 3 3 3 3 3 3 3 4 3 3 4 4 4 4 4 4 5 5 5 5 5 5 5 6 6 6 7 7 7 7 8 8 8 8 8 8 8 8 8 8 8 7 7 8 8 8 8
2 2 2 2 2 3 3 3 3 3 3 3 3 3 3 3 3 3 4 4 4 4 4 4 4 4 4 4 5 5 6 6 7 7 7 7 8 8 8 8 8 8 8 8 8 7 7 7 7 8 8 8
1 1 1 1 2 2 3 3 3 3 3 3 3 3 3 3 3 3 3 3 3 3 3 3 3 3 3 3 4 4 5 5 6 6 6 7 7 7 7 7 7 8 8 8 7 7 7 7 7 7 8 8
-0 -0 -0 0 1 2 2 2 2 3 3 3 3 3 3 3 3 3 3 3 3 3 3 2 2 2 2 3 3 4 4 5 5 6 6 6 7 7 7 7 7 7 7 7 7 7 7 7 7 7 8 8
-1 -1 -1 -1 -0 0 0 1 2 2 2 3 3 3 3 3 3 3 3 3 2 2 2 2 2 2 2 2 2 3 4 4 5 5 5 6 6 6 6 7 7 7 7 7 7 7 7 7 7 7 7 7
-3 -2 -2 -1 -1 -1 -1 0 0 0 1 2 2 3 3 3 3 3 3 3 3 3 2 2 2 2 2 2 2 2 3 4 4 5 5 5 6 6 6 6 6 7 7 7 7 7 7 6 7 7 7 7
-3 -3 -2 -2 -1 -2 -1 -1 -1 -1 -0 0 0 1 2 2 2 3 3 3 3 3 3 2 1 1 1 1 1 2 2 3 4 4 5 5 5 6 6 6 6 6 6 6 7 7 6 6 6 6 7 7
-4 -3 -3 -2 -2 -2 -2 -1 -2 -2 -1 -1 -2 -1 0 1 1 1 2 2 3 3 3 3 3 2 2 2 2 2 2 2 3 4 4 5 5 5 5 6 6 6 6 6 6 6 6 6 6 6 6 6
-4 -4 -4 -3 -2 -3 -2 -2 -2 -2 -2 -3 -3 -3 -2 -0 -0 -1 -0 0 1 2 2 3 3 3 3 3 3 3 3 2 3 4 4 4 4 5 5 5 5 5 6 6 6 6 6 6 6 6 6 6
-4 -4 -4 -3 -3 -3 -3 -3 -2 -2 -3 -3 -3 -3 -3 -2 -1 -2 -2 -2 -1 -0 1 1 2 3 3 3 3 4 4 4 3 4 4 4 4 4 5 5 5 5 5 6 5 5 5 6 6 6 6 6
-4 -4 -4 -4 -4 -4 -4 -3 -3 -3 -3 -3 -4 -4 -4 -3 -3 -3 -3 -3 -3 -3 -2 -0 0 1 2 2 3 3 4 4 4 4 4 4 4 4 4 5 5 5 5 5 5 5 5 5 6 5 6 6
-4 -4 -4 -4 -4 -4 -4 -3 -3 -4 -4 -4 -4 -4 -4 -4 -4 -4 -4 -4 -4 -4 -3 -2 -2 -1 -0 1 1 1 3 4 4 4 5 4 4 4 4 4 5 5 5 5 5 5 5 5 5 6 5 6
-4 -4 -4 -4 -4 -4 -4 -4 -4 -4 -5 -5 -5 -5 -5 -5 -4 -5 -5 -5 -5 -5 -4 -4 -4 -3 -2 -2 -1 -1 0 2 3 4 4 4 5 4 4 5 5 5 5 5 5 5 5 6 6 6 6 6
-5 -5 -5 -5 -5 -5 -5 -4 -5 -5 -5 -6 -5 -5 -5 -5 -5 -5 -6 -5 -5 -5 -5 -5 -4 -4 -4 -3 -3 -3 -2 -0 1 2 3 4 4 4 4 5 5 5 5 5 5 5 5 6 6 6 6 6
-6 -6 -6 -6 -5 -5 -5 -5 -5 -5 -6 -6 -6 -6 -6 -6 -6 -6 -6 -6 -6 -6 -6 -5 -5 -5 -4 -4 -4 -4 -3 -2 -1 -0 1 2 3 4 4 4 4 5 5 5 5 5 5 5 6 6 6 6
-7 -7 -7 -7 -7 -7 -6 -6 -6 -6 -6 -6 -6 -7 -7 -7 -7 -7 -7 -7 -7 -7 -6 -6 -6 -5 -5 -5 -4 -4 -4 -3 -3 -2 -1 -0 1 2 3 3 4 4 4 4 5 4 4 5 5 5 6 6
-8 -8 -8 -8 -8 -8 -8 -8 -8 -7 -7 -7 -7 -7 -7 -8 -8 -7 -7 -7 -7 -7 -7 -7 -6 -6 -5 -5 -5 -5 -5 -4 -4 -3 -3 -2 -1 -1 1 2 3 3 3 4 4 4 4 4 5 5 5 6
-9 -9 -9 -9 -9 -9 -9 -9 -9 -9 -8 -8 -8 -8 -8 -8 -8 -8 -8 -8 -8 -8 -7 -7 -7 -7 -6 -6 -6 -6 -5 -5 -4 -4 -3 -3 -3 -2 -1 -1 0 1 2 2 3 4 4 4 4 5 5 5
-9 -9 -9 -9 -9 -9 -9 -9 -9 -9 -9 -9 -9 -9 -9 -8 -8 -8 -8 -8 -8 -8 -8 -7 -7 -7 -7 -6 -6 -6 -6 -5 -5 -5 -4 -4 -3 -3 -3 -2 -2 -1 -1 -0 1 2 3 3 4 4 4 5
-9 -9 -9 -9 -9 -9 -9 -9 -9 -9 -9 -9 -9 -10 -9 -9 -8 -8 -8 -8 -9 -9 -8 -8 -8 -7 -7 -7 -7 -6 -6 -6 -5 -5 -5 -4 -4 -4 -4 -3 -3 -3 -2 -2 -1 -0 1 2 3 3 4 4
-8 -8 -8 -8 -9 -9 -9 -9 -9 -9 -9 -9 -9 -10 -10 -10 -9 -9 -9 -9 -9 -9 -9 -9 -8 -8 -8 -7 -7 -7 -7 -6 -6 -5 -5 -5 -5 -4 -4 -4 -4 -3 -3 -3 -3 -2 -1 1 2 3 3 3
-8 -8 -8 -8 -9 -9 -9 -9 -9 -9 -9 -9 -9 -10 -10 -10 -10 -10 -10 -10 -9 -9 -9 -9 -9 -9 -8 -8 -8 -7 -7 -7 -6 -6 -6 -6 -5 -5 -5 -4 -4 -4 -3 -3 -3 -3 -2 -1 0 2 2 2
-8 -8 -8 -8 -9 -9 -9 -9 -9 -9 -9 -10 -10 -10 -10 -10 -10 -11 -11 -11 -10 -10 -10 -10 -10 -9 -9 -9 -9 -8 -7 -7 -7 -6 -6 -6 -6 -6 -5 -5 -4 -4 -4 -3 -3 -3 -2 -2 -1 -0 1 2
-8 -8 -9 -9 -9 -10 -10 -10 -10 -10 -10 -10 -10 -10 -10 -10 -10 -11 -11 -11 -11 -11 -11 -11 -11 -10 -10 -10 -9 -9 -8 -8 -7 -7 -7 -7 -6 -6 -5 -5 -4 -4 -4 -3 -3 -3 -2 -2 -1 -1 -0 1
-8 -9 -9 -10 -10 -10 -10 -10 -10 -10 -10 -10 -10 -10 -10 -10 -11 -11 -11 -11 -11 -12 -12 -11 -11 -11 -11 -10 -10 -9 -9 -8 -7 -7 -7 -7 -6 -6 -6 -5 -5 -4 -4 -4 -3 -3 -3 -2 -1 -1 -0 0
-9 -9 -10 -10 -10 -10 -11 -11 -11 -11 -11 -11 -11 -11 -11 -11 -11 -11 -11 -12 -12 -12 -12 -12 -11 -11 -11 -11 -10 -10 -9 -8 -8 -7 -7 -7 -7 -6 -6 -6 -5 -5 -4 -4 -4 -4 -3 -2 -2 -1 -0 0
-10 -11 -11 -11 -11 -11 -12 -11 -11 -11 -11 -11 -11 -12 -12 -12 -12 -12 -12 -12 -12 -12 -12 -12 -12 -11 -11 -11 -11 -10 -10 -9 -8 -8 -7 -7 -7 -7 -7 -6 -6 -5 -5 -4 -4 -4 -4 -3 -2 -2 -2 -2
-12 -12 -12 -12 -12 -12 -12 -12 -12 -12 -12 -12 -12 -12 -12 -12 -12 -12 -12 -12 -12 -12 -12 -12 -12 -12 -12 -11 -11 -11 -10 -9 -9 -8 -8 -7 -7 -7 -7 -7 -6 -6 -6 -5 -5 -5 -5 -4 -4 -3 -3 -3

ECMWFFLT2_850_temp_036.txt.gz
Temp
2 3 3 3 3 4 4 4 4 5 5 5 5 5 5 5 5 6 6 6 6 6 7 7 7 7 7 7 8 8 8 8 8 8 8 9 9 9 9 9 9 9 9 9 9 9 9 9 9 9 9 9
2 2 2 2 3 3 3 3 4 4 4 4 4 4 4 4 4 5 5 6 6 5 5 6 6 7 7 7 7 7 8 8 8 8 8 8 8 8 8 9 9 9 9 9 9 8 8 9 9 9 9 9
1 1 1 2 2 2 3 3 3 3 3 3 4 4 4 4 4 4 4 5 5 5 5 5 5 6 6 6 6 6 7 7 7 7 8 8 8 8 8 8 8 9 9 9 8 8 8 9 8 8 8 9
0 0 0 1 1 2 2 2 3 3 3 3 3 3 4 4 3 4 4 4 4 4 4 5 5 5 6 5 5 5 6 6 7 7 7 7 7 7 8 8 8 8 8 8 8 8 8 8 8 8 8 8
-0 -0 -0 0 1 1 1 2 2 2 3 3 3 3 3 3 3 3 3 3 3 3 3 3 4 4 5 5 4 4 5 5 6 5 6 7 7 7 7 7 7 8 8 8 8 8 8 8 8 8 8 8
-1 -1 -0 -0 -0 0 0 1 1 2 2 2 2 2 2 3 3 3 3 3 3 3 3 3 3 3 3 4 4 4 4 4 5 4 5 6 6 7 7 7 7 7 8 8 8 8 8 8 8 8 8 8
-1 -1 -1 -1 -1 -0 -0 -0 0 0 1 2 2 2 2 2 2 3 3 3 3 3 3 3 3 3 2 3 3 3 3 3 3 4 4 5 6 6 6 7 7 7 7 7 7 8 8 8 8 8 8 7
-1 -1 -1 -1 -1 -1 -1 -0 -0 -0 -0 0 0 1 1 2 2 2 2 2 2 2 2 3 3 3 3 3 3 3 3 3 3 3 3 4 5 5 6 6 6 7 7 7 7 7 7 7 8 8 8 7
-2 -2 -1 -1 -1 -1 -1 -1 -1 -1 -1 -1 -2 -2 -0 1 1 1 2 2 2 2 2 2 2 2 3 3 3 3 3 3 2 2 2 3 4 4 5 5 6 6 7 7 7 7 7 7 7 7 7 7
-2 -2 -2 -1 -2 -2 -1 -1 -1 -1 -1 -1 -2 -3 -2 -0 1 1 1 1 2 2 2 2 2 2 2 2 2 2 2 2 2 2 2 2 2 3 4 4 5 5 6 6 7 7 7 7 7 7 7 7
-2 -2 -2 -2 -2 -2 -1 -1 -1 -1 -1 -1 -2 -3 -3 -2 -1 -0 0 1 1 1 2 2 2 2 2 2 2 2 2 2 2 2 2 2 2 2 3 3 4 4 5 6 6 7 7 6 6 7 7 7
-2 -2 -2 -2 -2 -2 -2 -2 -2 -2 -2 -2 -2 -3 -3 -3 -2 -2 -1 -0 -0 0 1 1 2 2 2 3 2 2 2 2 2 1 2 2 2 2 2 3 3 3 4 5 6 6 6 6 6 7 6 6
-2 -2 -2 -2 -2 -2 -2 -2 -2 -2 -2 -2 -2 -3 -3 -3 -2 -2 -2 -2 -2 -1 -1 0 1 0 1 2 2 2 2 2 2 1 1 1 1 1 1 2 3 3 3 4 5 5 6 6 6 6 6 6
-2 -2 -2 -2 -2 -2 -2 -2 -2 -2 -2 -3 -3 -3 -3 -3 -2 -3 -3 -3 -3 -2 -2 -1 -0 -1 -0 0 1 0 1 2 2 2 1 1 1 1 1 2 3 3 4 4 4 5 5 5 6 6 6 6
-4 -4 -3 -3 -3 -3 -3 -3 -3 -3 -3 -3 -3 -3 -3 -3 -3 -3 -3 -4 -4 -3 -2 -2 -1 -1 -1 -1 -1 -1 -1 -0 1 2 2 1 1 1 1 1 2 3 3 4 4 4 5 5 5 5 5 6
-6 -5 -5 -5 -4 -4 -4 -3 -3 -3 -4 -4 -4 -4 -4 -4 -4 -4 -4 -4 -4 -3 -3 -3 -3 -3 -2 -2 -2 -3 -3 -2 -0 1 1 1 1 1 1 1 2 3 3 3 4 4 5 5 5 5 5 5
-7 -7 -7 -7 -7 -6 -6 -5 -5 -4 -4 -4 -4 -4 -4 -5 -5 -4 -4 -4 -4 -3 -3 -3 -4 -4 -4 -4 -4 -4 -3 -3 -2 -1 -0 0 1 1 2 2 2 2 3 3 3 4 5 5 5 5 5 5
-7 -7 -7 -8 -8 -8 -8 -8 -7 -7 -7 -6 -6 -5 -5 -5 -5 -5 -5 -5 -4 -4 -4 -4 -4 -5 -5 -5 -4 -4 -4 -3 -3 -2 -2 -1 -1 0 1 2 2 2 3 3 3 4 4 5 5 5 5 5
-7 -8 -8 -8 -8 -8 -8 -8 -8 -8 -8 -8 -8 -7 -7 -6 -6 -6 -6 -6 -6 -5 -5 -5 -5 -5 -6 -6 -5 -5 -5 -4 -4 -3 -3 -3 -2 -2 -1 0 2 2 2 3 3 4 4 5 5 5 5 5
-7 -8 -8 -8 -8 -8 -9 -9 -9 -9 -9 -9 -9 -9 -9 -8 -8 -7 -7 -7 -7 -7 -6 -6 -5 -5 -6 -6 -6 -6 -5 -5 -5 -4 -4 -4 -3 -3 -3 -2 -1 1 2 3 3 3 4 4 5 5 5 5
-7 -7 -7 -8 -8 -8 -8 -9 -8 -9 -9 -9 -9 -9 -9 -9 -9 -9 -8 -8 -7 -8 -8 -7 -7 -6 -6 -6 -7 -7 -6 -6 -5 -5 -5 -4 -4 -3 -3 -3 -3 -2 -0 1 2 3 4 4 4 5 5 5
-7 -7 -7 -7 -7 -8 -8 -8 -8 -8 -9 -9 -9 -9 -9 -9 -10 -10 -10 -9 -9 -9 -9 -8 -8 -7 -7 -7 -7 -7 -7 -7 -6 -6 -6 -5 -4 -4 -3 -3 -3 -3 -2 -1 -0 2 3 4 4 5 5 5
-7 -7 -7 -7 -7 -7 -8 -8 -8 -8 -9 -9 -9 -9 -9 -9 -10 -10 -10 -10 -10 -10 -10 -10 -9 -9 -8 -8 -8 -7 -7 -7 -7 -7 -6 -6 -5 -5 -4 -4 -3 -3 -3 -3 -2 -1 2 3 3 4 4 5
-8 -8 -8 -7 -7 -7 -8 -8 -8 -8 -9 -9 -9 -9 -9 -9 -10 -10 -10 -10 -10 -10 -10 -10 -10 -10 -9 -9 -8 -8 -8 -7 -7 -7 -7 -6 -6 -5 -5 -5 -4 -4 -4 -3 -3 -2 -0 1 2 3 4 4
-9 -9 -9 -8 -8 -8 -8 -8 -9 -9 -9 -9 -9 -9 -9 -10 -10 -10 -10 -10 -10 -10 -11 -11 -10 -10 -10 -10 -10 -9 -9 -8 -8 -7 -7 -7 -6 -6 -5 -5 -5 -4 -4 -4 -3 -3 -2 -0 1 2 3 3
-10 -10 -9 -9 -9 -9 -9 -9 -9 -9 -10 -10 -10 -10 -10 -10 -10 -10 -10 -10 -10 -10 -11 -11 -11 -11 -11 -11 -11 -11 -10 -9 -9 -8 -8 -7 -7 -6 -6 -6 -5 -5 -4 -4 -4 -3 -3 -2 -1 1 2 3
-11 -11 -10 -10 -10 -9 -9 -10 -10 -10 -10 -10 -10 -10 -10 -10 -10 -10 -10 -10 -10 -11 -11 -11 -11 -11 -12 -12 -12 -11 -11 -10 -10 -9 -8 -8 -7 -7 -7 -6 -6 -5 -5 -5 -4 -4 -3 -3 -2 -1 0 2
-12 -11 -11 -11 -11 -11 -10 -11 -11 -11 -11 -11 -11 -11 -11 -11 -11 -11 -11 -11 -11 -11 -11 -11 -12 -12 -12 -12 -12 -12 -12 -11 -10 -10 -9 -8 -8 -7 -7 -7 -6 -6 -5 -5 -4 -4 -4 -3 -3 -2 -1 0
-13 -13 -12 -12 -12 -12 -12 -11 -11 -12 -12 -12 -12 -11 -11 -12 -12 -12 -12 -12 -12 -12 -12 -12 -12 -12 -12 -12 -12 -12 -12 -11 -11 -11 -10 -9 -8 -8 -7 -7 -7 -6 -6 -5 -5 -4 -4 -3 -3 -2 -1 -1
-14 -14 -13 -13 -13 -13 -13 -13 -13 -13 -12 -12 -12 -12 -12 -12 -12 -13 -13 -13 -13 -13 -12 -12 -12 -12 -12 -12 -12 -12 -12 -11 -11 -11 -11 -10 -9 -8 -8 -7 -7 -7 -6 -5 -5 -5 -4 -4 -3 -3 -2 -2
-15 -15 -15 -15 -14 -14 -14 -14 -13 -13 -13 -13 -13 -13 -13 -13 -13 -13 -13 -13 -13 -13 -13 -13 -13 -13 -13 -13 -12 -12 -12 -12 -12 -12 -11 -10 -10 -9 -8 -8 -7 -7 -7 -6 -5 -5 -4 -4 -4 -3 -3 -3

ECMWFFLT2_850_temp_039.txt.gz
Temp
1 1 1 2 2 2 2 2 2 2 3 3 3 4 4 4 5 5 5 5 5 5 5 5 6 6 6 7 7 8 8 8 8 8 8 8 8 8 9 9 9 9 9 9 9 9 9 9 9 9 9 9
1 1 1 1 1 1 1 2 2 2 2 2 3 3 3 3 4 4 4 4 5 5 5 5 5 5 5 6 6 6 6 7 7 8 8 8 8 8 8 9 9 9 9 9 9 9 9 9 9 9 9 9
0 0 0 0 1 1 1 1 2 2 2 2 2 2 2 3 3 3 3 3 4 4 4 5 5 5 5 5 6 5 5 6 6 7 7 7 8 8 8 8 8 9 9 9 9 9 9 9 9 9 9 9
-0 -0 -0 0 0 0 0 1 1 1 1 2 2 2 2 2 2 2 3 3 3 3 4 4 4 4 4 5 5 6 6 5 5 6 7 7 7 7 8 8 8 8 8 8 9 9 8 8 8 8 9 8
-1 -1 -1 -0 -0 -0 0 0 0 0 1 1 2 2 2 2 2 2 2 2 2 3 3 3 3 3 4 4 5 5 5 6 6 5 6 6 7 7 7 8 8 8 8 8 8 9 8 8 8 8 8 8
-1 -1 -1 -1 -1 -0 -0 -0 -0 0 0 1 1 1 2 2 2 2 2 2 2 2 2 3 3 3 3 3 4 4 4 5 6 5 5 5 5 6 7 7 8 8 8 8 8 8 8 8 8 8 8 8
-2 -2 -1 -1 -1 -1 -1 -1 -1 -0 -0 -0 0 0 1 2 1 1 1 2 2 2 2 2 2 3 3 3 3 3 4 4 4 5 5 5 4 4 6 7 7 7 8 8 8 8 8 8 8 8 7 7
-2 -2 -2 -2 -1 -1 -1 -1 -1 -1 -1 -1 -1 -0 0 1 1 1 1 1 1 2 2 2 2 2 3 3 3 3 3 3 3 3 4 5 4 3 4 6 6 7 7 7 7 7 8 7 7 8 7 7
-2 -2 -2 -2 -2 -2 -1 -1 -1 -1 -1 -1 -1 -1 -0 0 1 1 1 1 1 1 2 2 2 2 2 2 3 3 3 3 3 3 3 4 4 4 3 4 5 6 6 7 7 7 7 7 7 7 7 7
-2 -2 -2 -2 -2 -2 -2 -1 -1 -1 -1 -1 -1 -1 -1 -0 -0 0 0 0 1 1 1 2 2 2 2 2 2 2 3 3 3 3 3 3 4 4 4 3 3 4 5 6 6 7 7 7 7 7 7 7
-2 -2 -2 -2 -2 -2 -2 -2 -2 -1 -1 -1 -1 -1 -1 -1 -1 -0 -0 0 0 1 1 1 1 2 2 2 2 2 2 2 3 3 3 3 3 3 4 4 3 3 3 4 5 6 6 7 7 7 7 7
-3 -3 -2 -2 -2 -2 -2 -3 -2 -2 -2 -2 -2 -2 -1 -1 -1 -1 -1 -0 -0 0 0 1 1 1 1 1 1 2 2 2 2 2 3 2 2 2 3 3 3 3 2 2 3 5 5 6 6 6 6 7
-4 -4 -4 -4 -4 -3 -3 -3 -3 -3 -3 -3 -3 -3 -3 -2 -2 -1 -1 -1 -0 -0 -0 0 0 0 1 1 1 1 1 2 2 2 2 2 2 2 2 3 3 3 2 2 2 3 4 4 4 5 5 6
-5 -5 -5 -5 -5 -5 -5 -4 -4 -4 -4 -4 -4 -4 -4 -4 -3 -2 -2 -1 -1 -1 -1 -1 -0 -0 0 0 -0 -0 1 1 2 2 2 2 2 2 2 2 2 2 2 2 2 2 2 3 3 3 4 5
-6 -6 -6 -6 -6 -6 -6 -6 -6 -5 -5 -5 -5 -5 -5 -5 -5 -4 -3 -3 -2 -2 -2 -1 -1 -1 -1 -0 -1 -1 -0 0 1 2 2 1 1 2 2 2 2 2 2 2 2 2 2 2 2 2 3 4
-6 -6 -7 -7 -7 -7 -7 -7 -7 -7 -7 -6 -7 -7 -6 -6 -6 -6 -6 -5 -4 -3 -2 -2 -2 -2 -2 -2 -1 -1 -1 -1 -0 0 1 1 1 1 1 2 2 2 2 2 2 2 1 1 1 2 2 3
-7 -7 -7 -7 -7 -7 -7 -7 -7 -7 -7 -7 -8 -8 -8 -7 -7 -7 -7 -7 -6 -5 -4 -4 -3 -3 -3 -3 -3 -2 -2 -2 -1 -1 -0 0 -0 0 0 1 1 1 2 2 2 2 1 1 1 1 2 2
-7 -7 -7 -7 -7 -7 -7 -7 -7 -7 -8 -8 -8 -8 -8 -8 -8 -8 -8 -8 -7 -7 -6 -6 -5 -4 -4 -4 -4 -4 -4 -3 -2 -2 -1 -1 -1 -0 -0 -0 0 0 1 1 1 1 1 0 0 1 1 2
-7 -7 -7 -7 -7 -7 -7 -7 -8 -8 -8 -8 -8 -9 -9 -9 -9 -9 -9 -9 -9 -8 -8 -7 -7 -6 -6 -5 -5 -5 -5 -4 -3 -3 -2 -2 -2 -1 -0 -1 -1 -1 -1 0 1 1 1 1 0 0 1 1
-7 -8 -8 -8 -8 -8 -8 -8 -8 -8 -8 -8 -8 -9 -9 -9 -9 -9 -9 -9 -9 -9 -9 -8 -8 -8 -7 -7 -6 -6 -6 -6 -5 -4 -4 -4 -3 -2 -2 -1 -1 -1 -2 -1 -0 0 1 1 1 1 1 1
-8 -8 -8 -8 -8 -8 -8 -8 -8 -8 -8 -8 -9 -9 -9 -9 -9 -9 -9 -9 -9 -9 -9 -10 -9 -9 -8 -8 -7 -7 -6 -6 -6 -6 -6 -5 -5 -4 -3 -3 -2 -2 -2 -2 -1 -1 -0 1 1 1 1 1
-9 -9 -9 -9 -8 -8 -8 -8 -8 -8 -8 -9 -9 -9 -9 -9 -9 -9 -9 -9 -10 -10 -10 -10 -10 -10 -9 -9 -9 -8 -8 -7 -7 -7 -7 -6 -6 -5 -5 -4 -3 -3 -3 -3 -2 -1 -1 -0 0 1 1 1
-10 -10 -9 -9 -9 -8 -8 -9 -9 -9 -9 -9 -9 -9 -9 -9 -9 -10 -10 -10 -10 -10 -10 -10 -10 -10 -10 -10 -10 -9 -9 -8 -8 -7 -7 -7 -6 -6 -6 -5 -5 -4 -4 -3 -3 -2 -1 -0 -0 0 0 1
-11 -11 -10 -10 -10 -9 -9 -9 -9 -10 -10 -9 -9 -9 -9 -10 -10 -10 -10 -10 -10 -10 -10 -11 -11 -11 -10 -10 -10 -10 -10 -9 -9 -8 -8 -8 -7 -7 -6 -6 -6 -5 -5 -4 -3 -2 -1 -1 -0 0 0 0
-12 -12 -11 -11 -11 -11 -11 -10 -10 -10 -10 -10 -10 -10 -10 -10 -10 -10 -10 -10 -10 -10 -10 -11 -11 -11 -11 -11 -11 -11 -11 -10 -10 -9 -9 -8 -8 -7 -7 -7 -6 -6 -6 -5 -4 -3 -3 -1 -1 -0 0 1
-12 -12 -12 -12 -12 -12 -12 -12 -12 -12 -11 -11 -10 -10 -10 -10 -10 -10 -10 -11 -11 -10 -10 -11 -11 -11 -11 -11 -11 -11 -11 -11 -11 -10 -10 -9 -9 -8 -8 -7 -7 -7 -6 -6 -5 -5 -4 -3 -1 -0 -0 1
-13 -13 -13 -13 -13 -13 -13 -13 -13 -13 -12 -12 -11 -11 -11 -11 -11 -11 -11 -11 -11 -11 -11 -11 -11 -11 -11 -11 -11 -12 -12 -12 -12 -11 -11 -11 -10 -10 -9 -8 -7 -7 -7 -7 -6 -6 -6 -5 -3 -1 -0 1
-14 -14 -14 -13 -13 -13 -13 -14 -13 -13 -13 -12 -12 -12 -11 -11 -11 -11 -12 -12 -12 -11 -11 -11 -11 -12 -12 -12 -12 -12 -12 -12 -12 -12 -12 -11 -11 -11 -10 -9 -8 -8 -7 -7 -7 -7 -6 -5 -5 -4 -2 -1
-14 -14 -14 -14 -15 -15 -15 -14 -14 -14 -14 -13 -13 -13 -12 -12 -12 -12 -12 -12 -12 -12 -12 -12 -12 -12 -12 -12 -13 -13 -13 -13 -13 -12 -12 -12 -12 -11 -11 -11 -10 -9 -8 -8 -8 -7 -7 -6 -6 -5 -3 -3
-15 -15 -15 -15 -16 -16 -16 -16 -15 -15 -15 -14 -14 -14 -13 -13 -13 -13 -13 -13 -13 -13 -13 -13 -13 -13 -13 -13 -13 -13 -13 -13 -13 -13 -12 -12 -12 -12 -11 -11 -11 -10 -9 -8 -8 -7 -7 -7 -6 -5 -4 -4
-15 -16 -16 -16 -17 -17 -17 -16 -16 -16 -16 -15 -15 -14 -14 -14 -14 -14 -14 -14 -14 -14 -14 -14 -14 -14 -14 -14 -14 -14 -14 -13 -13 -13 -13 -13 -12 -12 -12 -12 -11 -11 -10 -9 -8 -8 -7 -7 -7 -6 -6 -6

ECMWFFLT2_850_temp_042.txt.gz
Temp
-0 -0 -0 0 0 0 0 0 0 0 1 1 1 1 1 1 1 2 2 3 4 4 4 4 4 4 4 5 5 5 6 6 7 7 7 8 8 8 9 9 9 9 9 9 10 10 9 10 10 10 10 10
-0 -1 -1 -0 -0 -0 -0 -0 -0 -0 0 1 1 1 1 1 1 1 1 1 2 3 4 4 4 4 4 4 4 5 5 5 5 6 7 7 7 8 8 9 9 9 9 9 9 9 9 9 9 10 10 10
-1 -1 -1 -1 -1 -1 -1 -1 -1 -1 -1 -0 0 1 1 1 1 1 1 1 1 2 2 3 3 4 4 4 4 5 4 5 5 5 6 6 7 7 8 8 8 9 9 9 9 9 8 9 9 9 9 10
-1 -1 -1 -1 -1 -1 -1 -1 -1 -1 -1 -1 -0 0 1 1 1 1 1 1 1 1 1 2 2 3 3 4 4 4 4 4 5 5 6 6 6 7 7 8 8 8 9 9 9 9 8 8 8 9 9 9
-1 -1 -1 -1 -1 -1 -1 -1 -1 -1 -1 -1 -1 -0 -0 0 1 1 1 1 1 1 1 1 1 1 2 2 3 3 4 4 4 5 6 6 6 6 6 7 8 8 8 9 9 8 8 8 7 8 8 8
-1 -1 -1 -1 -1 -1 -1 -1 -1 -1 -1 -1 -1 -1 -1 -0 0 0 1 1 1 1 1 1 1 1 1 1 2 2 3 3 4 4 5 5 6 6 6 6 7 8 8 8 8 8 8 7 7 7 7 8
-1 -1 -1 -1 -1 -1 -1 -1 -1 -1 -1 -2 -1 -1 -1 -1 -1 -0 -0 0 0 1 1 1 1 1 1 1 1 1 2 2 3 3 4 4 5 5 5 5 6 7 7 8 8 8 8 7 7 7 7 7
-2 -2 -2 -2 -2 -2 -2 -1 -1 -1 -1 -2 -2 -2 -1 -1 -1 -1 -0 -0 0 0 1 1 1 1 1 1 1 1 1 2 2 3 3 3 4 4 5 5 5 5 6 7 7 7 7 7 7 7 6 6
-3 -3 -3 -3 -3 -3 -2 -2 -2 -2 -2 -2 -2 -2 -2 -1 -1 -1 -1 -0 -0 0 0 1 1 1 1 1 1 1 2 2 2 2 3 3 4 4 4 5 5 5 5 5 6 6 7 7 7 6 6 6
-4 -4 -4 -4 -4 -4 -4 -3 -3 -3 -2 -2 -2 -2 -2 -2 -1 -1 -1 -1 -0 -0 0 0 0 1 1 1 1 1 2 2 2 2 3 3 3 4 4 4 5 5 5 5 4 5 5 6 7 6 6 6
-6 -6 -5 -5 -5 -5 -5 -5 -4 -4 -3 -3 -3 -3 -3 -2 -2 -1 -1 -1 -1 -1 -0 -0 0 0 0 0 1 1 1 2 2 2 2 3 3 3 3 4 4 5 5 5 4 4 4 4 6 6 6 6
-6 -6 -6 -6 -6 -6 -6 -6 -6 -6 -5 -5 -4 -4 -4 -4 -4 -3 -2 -2 -1 -1 -1 -1 -0 -0 0 0 0 0 1 1 1 2 2 2 2 3 3 3 4 4 4 4 4 4 3 3 4 5 6 5
-7 -7 -7 -7 -7 -7 -7 -6 -7 -7 -7 -6 -6 -6 -5 -5 -5 -5 -4 -3 -3 -3 -2 -2 -1 -1 -1 -0 -0 0 0 0 1 1 2 2 2 2 2 3 3 3 3 4 4 4 3 3 2 3 4 5
-7 -7 -7 -7 -7 -7 -7 -7 -7 -7 -7 -7 -7 -7 -7 -6 -6 -6 -6 -5 -5 -4 -4 -3 -3 -2 -2 -1 -1 -0 -0 -0 0 1 1 2 2 2 2 2 2 3 3 3 3 3 3 3 2 2 2 3
-7 -7 -7 -7 -7 -7 -7 -7 -7 -7 -7 -8 -8 -8 -7 -7 -7 -7 -7 -6 -6 -6 -5 -5 -4 -4 -4 -3 -2 -1 -1 -1 -1 -0 0 1 1 1 2 2 2 2 2 2 2 3 3 3 2 2 2 2
-7 -7 -7 -7 -7 -7 -7 -7 -8 -8 -8 -8 -8 -8 -8 -8 -8 -8 -8 -7 -7 -7 -6 -6 -6 -5 -5 -5 -4 -3 -3 -2 -2 -1 -0 -0 0 1 1 1 1 1 2 2 2 2 3 3 2 2 2 1
-7 -7 -7 -7 -7 -7 -7 -7 -8 -8 -8 -8 -8 -8 -8 -8 -9 -9 -9 -8 -8 -7 -7 -7 -6 -6 -6 -6 -5 -5 -4 -4 -3 -2 -2 -1 -0 0 0 1 1 1 1 1 1 2 2 2 2 2 2 2
-7 -7 -7 -8 -7 -8 -8 -8 -8 -8 -8 -8 -8 -8 -9 -9 -9 -9 -9 -9 -9 -9 -8 -8 -7 -7 -7 -7 -7 -6 -6 -5 -5 -4 -3 -2 -2 -1 -0 0 1 1 1 1 1 1 1 1 1 2 2 2
-8 -8 -8 -8 -8 -8 -8 -8 -8 -8 -8 -8 -8 -9 -9 -9 -9 -9 -9 -9 -9 -9 -9 -9 -8 -8 -8 -8 -8 -7 -7 -7 -6 -6 -5 -5 -3 -2 -2 -1 -0 0 1 1 1 1 1 1 1 1 2 2
-8 -8 -9 -9 -8 -8 -8 -8 -9 -9 -8 -8 -9 -9 -9 -9 -9 -9 -9 -9 -9 -9 -9 -9 -9 -9 -9 -8 -8 -8 -8 -8 -7 -7 -7 -6 -6 -5 -3 -2 -1 -1 -1 0 1 1 1 1 0 0 1 2
-9 -9 -9 -9 -9 -9 -9 -9 -9 -9 -9 -9 -9 -9 -10 -10 -10 -10 -10 -10 -10 -10 -10 -10 -9 -9 -9 -9 -9 -9 -8 -8 -8 -8 -8 -7 -7 -7 -6 -5 -3 -2 -2 -1 0 1 1 1 1 1 1 1
-10 -10 -10 -10 -10 -10 -10 -10 -10 -10 -9 -9 -10 -10 -10 -10 -10 -10 -10 -10 -10 -10 -10 -10 -10 -10 -10 -10 -9 -9 -9 -9 -8 -8 -8 -8 -8 -8 -7 -7 -6 -4 -3 -3 -2 -0 1 1 1 1 1 1
-10 -11 -11 -11 -11 -11 -10 -10 -10 -10 -10 -10 -10 -10 -10 -11 -11 -11 -11 -10 -10 -10 -10 -10 -10 -10 -10 -10 -10 -10 -10 -10 -9 -9 -8 -8 -8 -8 -8 -7 -7 -6 -5 -4 -3 -2 -0 1 1 1 1 1
-11 -11 -12 -12 -12 -12 -11 -11 -11 -11 -11 -11 -11 -11 -11 -11 -11 -11 -11 -11 -11 -10 -10 -10 -10 -10 -10 -10 -10 -10 -10 -10 -10 -10 -9 -9 -9 -8 -8 -8 -7 -7 -7 -6 -4 -3 -2 -0 0 1 1 1
-11 -12 -12 -12 -13 -13 -12 -12 -12 -12 -12 -12 -12 -12 -12 -12 -12 -11 -11 -11 -11 -11 -11 -10 -10 -10 -10 -10 -11 -11 -11 -11 -11 -11 -11 -10 -10 -9 -9 -8 -8 -8 -7 -7 -6 -4 -3 -1 -0 0 1 1
-12 -13 -13 -13 -13 -13 -14 -14 -13 -13 -13 -13 -13 -13 -13 -12 -12 -12 -12 -11 -11 -11 -11 -11 -11 -11 -11 -11 -11 -11 -11 -11 -11 -11 -11 -11 -11 -11 -10 -10 -9 -9 -8 -8 -8 -7 -4 -2 -0 -0 -0 -0
-13 -13 -13 -14 -14 -14 -14 -14 -14 -14 -14 -14 -14 -13 -13 -12 -12 -12 -12 -12 -12 -11 -11 -11 -11 -11 -11 -12 -12 -12 -12 -12 -12 -12 -12 -12 -12 -12 -11 -11 -11 -10 -10 -10 -9 -8 -7 -5 -3 -1 -0 -1
-13 -13 -14 -14 -14 -14 -15 -15 -15 -15 -15 -15 -14 -14 -13 -13 -13 -12 -12 -12 -12 -12 -12 -12 -12 -12 -12 -12 -12 -13 -12 -12 -12 -12 -12 -12 -12 -12 -12 -12 -11 -11 -10 -11 -10 -10 -9 -8 -7 -5 -2 -2
-13 -13 -14 -14 -14 -14 -14 -14 -15 -15 -15 -15 -15 -14 -14 -13 -13 -12 -12 -12 -12 -12 -12 -12 -12 -12 -13 -13 -13 -13 -13 -13 -13 -13 -13 -13 -13 -13 -13 -13 -12 -11 -11 -11 -11 -11 -11 -10 -9 -8 -6 -5
-13 -13 -14 -14 -15 -15 -14 -15 -15 -16 -15 -15 -15 -15 -14 -13 -13 -13 -12 -12 -12 -12 -12 -12 -12 -13 -14 -14 -14 -14 -14 -14 -14 -14 -13 -13 -13 -13 -13 -13 -13 -12 -12 -11 -11 -11 -12 -11 -10 -9 -8 -8
-13 -14 -15 -15 -15 -15 -15 -15 -15 -15 -15 -15 -15 -14 -14 -13 -13 -13 -13 -13 -12 -12 -12 -13 -13 -13 -14 -14 -15 -15 -15 -15 -15 -15 -14 -14 -14 -14 -14 -14 -13 -13 -12 -12 -11 -10 -11 -11 -11 -10 -9 -9

ECMWFFLT2_850_temp_045.txt.gz
Temp
-1 -1 -1 -1 -1 -1 -1 -1 -1 -1 -1 -1 -1 -1 -1 -1 -1 -1 -2 -1 -1 -0 0 1 1 1 1 1 1 3 4 4 4 5 5 6 7 8 8 8 9 9 9 9 10 10 9 9 8 9 9 10
-1 -1 -1 -1 -1 -1 -1 -1 -1 -1 -1 -1 -1 -1 -1 -1 -1 -1 -2 -2 -2 -2 -1 -1 -0 0 1 1 1 2 3 4 4 5 5 5 6 6 7 7 8 8 9 9 9 10 9 9 8 8 9 9
-1 -1 -1 -1 -1 -1 -1 -1 -1 -1 -1 -1 -1 -1 -1 -1 -1 -1 -1 -1 -1 -2 -2 -2 -1 -1 -1 1 1 2 3 3 3 4 5 5 5 5 6 7 7 8 8 9 9 9 9 9 8 8 8 9
-2 -1 -1 -1 -1 -1 -1 -1 -1 -1 -1 -2 -2 -1 -1 -1 -1 -1 -1 -1 -1 -1 -2 -2 -2 -2 -2 -1 -0 1 2 3 2 3 4 5 5 4 5 5 6 7 7 8 9 9 9 9 8 8 9 8
-2 -2 -2 -2 -1 -1 -1 -1 -1 -1 -1 -1 -2 -2 -2 -1 -1 -1 -1 -1 -1 -1 -1 -1 -2 -2 -2 -2 -1 -0 1 2 2 2 3 4 4 4 4 5 5 6 6 7 8 8 8 8 8 8 9 8
-2 -2 -2 -2 -2 -2 -2 -2 -2 -2 -2 -2 -2 -2 -2 -2 -2 -1 -1 -1 -1 -1 -1 -1 -1 -2 -2 -2 -1 -1 -1 1 1 2 2 3 4 4 4 4 4 5 5 5 6 7 7 8 8 8 8 8
-3 -3 -3 -4 -3 -3 -3 -3 -3 -3 -3 -3 -3 -3 -3 -3 -3 -2 -2 -1 -1 -1 -1 -1 -1 -1 -1 -1 -1 -1 -1 -1 -0 1 1 2 3 3 4 4 4 4 4 4 5 6 7 8 8 8 8 8
-4 -4 -4 -5 -5 -5 -4 -4 -4 -4 -4 -4 -3 -3 -3 -4 -3 -3 -3 -2 -2 -1 -1 -1 -1 -1 -1 -1 -1 -1 -1 -1 -1 -1 -0 1 1 2 3 3 4 4 4 4 4 4 6 7 7 7 8 8
-5 -5 -5 -5 -5 -5 -5 -5 -5 -5 -5 -5 -4 -4 -4 -4 -4 -4 -4 -3 -3 -2 -1 -1 -1 -1 -1 -1 -1 -1 -0 -0 -0 -0 -0 -0 0 1 2 2 3 3 3 3 3 4 4 5 6 6 7 8
-5 -5 -5 -5 -5 -6 -6 -5 -5 -6 -6 -6 -6 -5 -5 -5 -5 -5 -5 -5 -4 -3 -3 -2 -1 -1 -1 -1 -1 -1 -1 -0 -0 0 0 0 -0 0 1 2 2 2 3 3 3 3 4 4 4 5 6 7
-6 -6 -6 -6 -6 -6 -6 -6 -6 -6 -6 -6 -6 -6 -6 -6 -6 -6 -6 -6 -6 -5 -4 -4 -3 -2 -2 -2 -1 -1 -1 -1 -0 -0 0 0 0 0 0 1 1 2 2 2 2 3 3 3 4 4 5 6
-6 -6 -6 -6 -6 -6 -6 -6 -6 -7 -7 -7 -7 -7 -7 -7 -7 -7 -7 -7 -7 -6 -6 -5 -5 -4 -3 -3 -2 -2 -2 -1 -1 -1 -0 0 1 1 0 0 1 1 1 1 2 2 3 3 3 4 4 4
-6 -6 -6 -7 -7 -7 -7 -7 -7 -7 -7 -7 -7 -7 -7 -7 -8 -8 -8 -7 -7 -7 -7 -7 -6 -5 -5 -4 -4 -3 -2 -2 -2 -1 -1 -0 0 0 1 0 0 1 1 1 1 1 2 2 3 4 4 4
-7 -7 -7 -7 -7 -7 -7 -7 -7 -7 -7 -7 -7 -7 -7 -8 -8 -8 -8 -8 -8 -8 -7 -7 -7 -6 -6 -5 -5 -4 -3 -3 -2 -2 -2 -1 -1 -0 0 1 0 0 0 0 0 0 1 2 2 3 4 4
-7 -7 -7 -7 -7 -7 -8 -8 -8 -8 -8 -8 -8 -7 -7 -8 -8 -9 -9 -9 -9 -9 -8 -7 -7 -7 -7 -6 -6 -5 -4 -4 -4 -3 -2 -2 -2 -1 -1 -0 0 0 0 0 0 0 0 1 2 3 4 4
-7 -7 -7 -7 -7 -7 -8 -8 -8 -8 -8 -8 -8 -8 -7 -8 -8 -9 -9 -9 -9 -9 -9 -8 -8 -7 -7 -7 -6 -6 -6 -5 -5 -4 -4 -3 -3 -2 -2 -1 -1 -1 -0 0 0 0 0 0 1 2 3 3
-7 -7 -7 -7 -8 -8 -8 -9 -9 -9 -9 -9 -8 -8 -8 -8 -8 -9 -9 -9 -9 -9 -9 -9 -9 -8 -8 -7 -7 -7 -7 -6 -6 -6 -5 -4 -4 -3 -3 -2 -1 -1 -1 -0 -0 0 0 0 1 1 2 3
-7 -8 -8 -8 -8 -9 -9 -9 -9 -9 -9 -9 -9 -8 -8 -8 -9 -9 -9 -9 -9 -9 -10 -10 -9 -9 -9 -8 -8 -7 -7 -7 -7 -6 -6 -5 -5 -4 -3 -3 -2 -1 -1 -0 -0 0 0 0 0 1 1 2
-8 -8 -8 -9 -9 -9 -9 -10 -10 -10 -10 -10 -10 -9 -9 -9 -9 -9 -9 -9 -9 -10 -10 -10 -10 -10 -9 -9 -8 -8 -8 -7 -7 -7 -7 -7 -6 -5 -4 -4 -3 -2 -2 -1 -0 -0 0 0 0 0 1 1
-8 -9 -9 -9 -10 -10 -10 -10 -10 -10 -11 -10 -10 -10 -10 -9 -9 -10 -10 -10 -10 -10 -10 -10 -10 -10 -10 -9 -9 -9 -8 -8 -8 -7 -7 -7 -7 -7 -6 -5 -4 -3 -3 -2 -1 -0 -0 0 1 1 1 1
-9 -9 -10 -10 -10 -10 -10 -11 -11 -11 -11 -11 -11 -10 -10 -10 -10 -10 -10 -10 -10 -10 -10 -10 -10 -10 -10 -10 -10 -9 -9 -9 -8 -8 -8 -8 -8 -8 -7 -6 -6 -4 -4 -3 -2 -1 -0 -0 1 1 1 1
-10 -10 -10 -10 -10 -11 -11 -11 -11 -11 -11 -11 -11 -11 -11 -11 -11 -11 -11 -11 -11 -11 -10 -10 -10 -10 -10 -10 -10 -10 -10 -9 -9 -9 -9 -9 -8 -8 -8 -8 -7 -6 -5 -4 -2 -1 -0 -0 0 1 1 1
-10 -10 -10 -10 -10 -11 -11 -11 -11 -11 -11 -11 -11 -11 -11 -11 -12 -11 -11 -11 -11 -11 -11 -11 -10 -10 -10 -10 -10 -10 -10 -10 -10 -9 -9 -9 -9 -9 -9 -9 -8 -8 -7 -5 -4 -2 -1 -0 0 0 1 1
-10 -11 -11 -11 -10 -10 -11 -10 -10 -10 -11 -12 -12 -12 -12 -12 -12 -12 -12 -12 -11 -11 -11 -11 -11 -11 -11 -11 -10 -10 -10 -10 -10 -10 -10 -10 -10 -9 -9 -9 -9 -9 -8 -7 -5 -4 -2 -1 -0 0 0 1
-11 -11 -11 -11 -11 -11 -11 -11 -10 -11 -11 -12 -12 -12 -12 -12 -13 -12 -12 -12 -12 -12 -12 -11 -11 -11 -11 -11 -11 -11 -11 -10 -10 -10 -10 -10 -10 -10 -10 -10 -9 -9 -9 -8 -7 -5 -3 -2 -1 -1 -1 -0
-11 -11 -11 -11 -11 -11 -11 -11 -11 -12 -12 -13 -13 -13 -13 -13 -13 -13 -13 -12 -12 -12 -12 -12 -12 -11 -11 -11 -11 -11 -11 -11 -11 -11 -11 -11 -11 -11 -11 -11 -10 -10 -10 -9 -9 -7 -5 -3 -2 -1 -2 -2
-11 -11 -11 -11 -11 -11 -11 -11 -12 -12 -13 -13 -14 -14 -14 -14 -14 -14 -13 -13 -12 -12 -12 -12 -12 -12 -11 -11 -11 -11 -11 -11 -11 -11 -11 -11 -12 -12 -11 -11 -11 -11 -11 -11 -10 -10 -8 -7 -5 -2 -2 -3
-11 -11 -11 -11 -11 -11 -12 -12 -12 -13 -13 -13 -14 -14 -14 -15 -14 -14 -14 -14 -13 -13 -12 -12 -12 -12 -12 -12 -12 -11 -11 -11 -12 -12 -12 -12 -13 -13 -13 -12 -12 -12 -12 -12 -11 -11 -11 -10 -9 -6 -4 -3
-11 -11 -11 -11 -11 -11 -11 -11 -12 -12 -12 -12 -13 -13 -14 -14 -14 -14 -14 -14 -13 -13 -13 -12 -12 -12 -12 -12 -12 -12 -12 -12 -12 -12 -13 -14 -14 -14 -14 -13 -13 -13 -12 -12 -12 -12 -12 -11 -11 -10 -8 -5
-12 -12 -11 -11 -11 -11 -10 -10 -11 -12 -12 -12 -12 -13 -13 -13 -13 -14 -14 -13 -13 -13 -12 -12 -12 -12 -12 -12 -12 -12 -13 -13 -13 -13 -14 -14 -14 -14 -14 -14 -14 -14 -13 -13 -12 -13 -13 -13 -12 -12 -10 -9
-12 -12 -12 -11 -11 -11 -10 -10 -11 -11 -12 -12 -12 -12 -12 -13 -13 -13 -13 -13 -13 -12 -12 -12 -12 -12 -12 -12 -13 -13 -13 -13 -13 -14 -14 -15 -15 -15 -15 -15 -15 -15 -14 -13 -13 -13 -13 -13 -13 -13 -12 -12

ECMWFFLT2_850_temp_048.txt.gz
Temp
-1 -2 -2 -2 -1 -1 -1 -1 -1 -1 -1 -1 -1 -1 -2 -2 -2 -1 -1 -1 -1 -1 -1 -1 -1 -1 -1 -1 -1 -0 0 1 1 1 1 1 2 3 4 5 6 7 8 9 9 10 9 9 8 8 9 9
-2 -2 -2 -2 -2 -2 -2 -2 -2 -2 -2 -2 -1 -1 -2 -2 -2 -2 -2 -2 -1 -1 -1 -1 -1 -1 -1 -1 -2 -1 -0 1 1 1 1 1 1 2 3 4 5 5 7 8 8 9 9 9 8 7 8 9
-2 -2 -2 -2 -2 -2 -2 -2 -2 -2 -2 -2 -2 -2 -2 -2 -3 -3 -3 -2 -2 -1 -1 -1 -1 -1 -1 -2 -2 -2 -1 0 1 1 1 1 1 2 2 3 4 4 5 6 7 8 8 8 8 7 7 8
-2 -2 -3 -3 -3 -3 -3 -3 -3 -3 -3 -3 -3 -3 -3 -3 -3 -3 -3 -3 -3 -2 -1 -1 -1 -1 -1 -2 -2 -2 -2 -1 -0 -0 0 1 1 1 2 2 3 3 4 5 5 6 7 7 7 7 7 8
-3 -3 -3 -3 -3 -3 -4 -4 -4 -3 -4 -4 -4 -3 -3 -4 -4 -4 -4 -4 -4 -3 -2 -2 -2 -2 -1 -2 -2 -2 -2 -2 -2 -1 -0 0 1 1 1 2 3 3 3 4 4 5 6 6 7 7 7 7
-4 -4 -4 -4 -4 -4 -4 -4 -4 -4 -4 -4 -4 -4 -4 -4 -4 -5 -5 -5 -5 -4 -4 -3 -3 -3 -2 -2 -2 -2 -2 -2 -2 -2 -2 -1 0 1 1 1 2 2 2 3 4 4 4 5 6 6 7 7
-5 -5 -5 -5 -4 -5 -5 -5 -5 -5 -5 -5 -5 -5 -5 -5 -5 -5 -5 -5 -5 -5 -5 -4 -4 -4 -3 -3 -3 -3 -2 -2 -2 -2 -2 -2 -1 -0 1 1 1 2 2 2 3 3 4 4 5 6 6 6
-5 -5 -5 -5 -5 -5 -5 -5 -5 -5 -5 -6 -6 -6 -6 -6 -6 -6 -6 -6 -6 -6 -6 -5 -4 -4 -4 -4 -3 -3 -3 -2 -2 -2 -2 -2 -2 -1 -1 0 1 1 1 2 2 3 3 3 4 4 5 5
-5 -5 -5 -5 -6 -6 -6 -6 -6 -6 -6 -6 -6 -6 -6 -7 -7 -7 -7 -7 -7 -6 -6 -6 -5 -5 -5 -4 -4 -4 -3 -3 -2 -2 -2 -2 -2 -2 -2 -1 -0 0 1 1 1 2 3 3 3 3 4 4
-6 -6 -6 -6 -6 -6 -6 -6 -6 -6 -6 -7 -7 -7 -7 -7 -7 -7 -7 -7 -7 -7 -7 -6 -6 -6 -5 -5 -5 -5 -4 -4 -3 -3 -3 -2 -2 -2 -2 -2 -2 -1 -1 0 1 1 2 3 3 3 3 4
-6 -6 -6 -6 -7 -7 -7 -7 -7 -7 -7 -7 -7 -7 -7 -7 -7 -7 -7 -7 -7 -7 -7 -7 -7 -6 -6 -6 -6 -6 -6 -5 -4 -4 -4 -3 -3 -2 -2 -2 -2 -2 -2 -1 0 1 1 2 2 3 3 3
-6 -6 -7 -7 -7 -7 -7 -7 -7 -7 -7 -7 -7 -7 -8 -8 -8 -8 -8 -8 -8 -8 -8 -8 -7 -7 -6 -7 -7 -6 -6 -6 -5 -5 -4 -4 -4 -3 -2 -2 -2 -2 -2 -2 -1 0 1 1 2 2 3 3
-6 -7 -7 -7 -7 -7 -7 -7 -7 -7 -7 -7 -8 -8 -8 -8 -8 -8 -8 -8 -8 -8 -8 -8 -8 -8 -7 -7 -7 -7 -7 -7 -6 -6 -5 -5 -5 -4 -3 -3 -2 -2 -2 -2 -2 -1 0 1 1 2 2 2
-7 -7 -7 -7 -7 -7 -7 -7 -7 -7 -8 -8 -8 -8 -8 -9 -9 -8 -8 -8 -8 -8 -9 -8 -8 -8 -8 -7 -7 -7 -7 -7 -7 -7 -6 -6 -5 -5 -4 -3 -3 -2 -2 -2 -2 -1 -1 0 1 1 1 2
-7 -7 -7 -7 -8 -8 -8 -8 -8 -8 -8 -8 -9 -9 -9 -9 -9 -9 -8 -8 -8 -8 -9 -9 -8 -8 -8 -8 -7 -7 -8 -8 -7 -7 -7 -7 -6 -6 -5 -4 -4 -3 -2 -2 -2 -2 -1 -1 -0 1 1 1
-7 -8 -8 -8 -8 -8 -9 -9 -9 -8 -8 -8 -9 -9 -9 -9 -9 -9 -9 -8 -9 -9 -9 -9 -9 -9 -9 -9 -8 -8 -8 -8 -8 -8 -7 -7 -7 -7 -6 -6 -5 -5 -4 -2 -2 -2 -2 -1 -1 -0 1 1
-8 -8 -8 -8 -9 -9 -9 -9 -9 -9 -9 -9 -9 -9 -10 -10 -10 -10 -9 -9 -9 -9 -9 -9 -9 -9 -9 -9 -9 -8 -8 -8 -8 -8 -8 -7 -7 -7 -7 -6 -6 -5 -5 -4 -3 -2 -2 -2 -1 -1 -0 0
-8 -8 -8 -8 -9 -9 -9 -9 -9 -9 -9 -9 -9 -9 -10 -11 -11 -10 -10 -10 -9 -10 -10 -10 -10 -10 -10 -9 -9 -9 -9 -8 -8 -8 -8 -8 -7 -7 -7 -7 -6 -6 -5 -5 -4 -3 -2 -2 -1 -1 -1 -0
-8 -8 -8 -8 -9 -9 -9 -9 -9 -9 -9 -9 -9 -9 -10 -11 -11 -11 -10 -10 -10 -10 -10 -10 -10 -10 -10 -10 -10 -10 -9 -9 -8 -9 -8 -8 -8 -8 -7 -7 -7 -6 -6 -5 -4 -4 -3 -2 -1 -1 -1 -0
-8 -8 -8 -8 -9 -9 -9 -9 -9 -9 -9 -9 -9 -10 -10 -11 -11 -11 -11 -10 -10 -10 -11 -10 -10 -10 -10 -10 -10 -10 -10 -10 -9 -9 -9 -9 -9 -9 -8 -7 -7 -7 -6 -6 -5 -4 -4 -3 -1 -1 -1 -0
-8 -9 -9 -9 -8 -8 -8 -8 -9 -9 -9 -9 -9 -10 -10 -10 -11 -11 -11 -11 -11 -11 -11 -11 -11 -11 -11 -11 -11 -10 -10 -10 -10 -9 -9 -9 -9 -9 -9 -8 -8 -7 -7 -6 -5 -4 -4 -3 -2 -1 -0 -0
-9 -9 -9 -9 -8 -8 -8 -8 -9 -9 -9 -9 -9 -9 -10 -10 -10 -11 -11 -11 -11 -11 -11 -11 -11 -11 -11 -11 -11 -11 -10 -10 -10 -10 -10 -9 -9 -9 -9 -9 -8 -8 -7 -7 -6 -5 -4 -3 -3 -2 -1 -0
-9 -9 -9 -9 -8 -8 -8 -8 -8 -9 -9 -9 -9 -9 -9 -10 -10 -11 -11 -11 -11 -11 -11 -11 -11 -11 -11 -11 -11 -11 -11 -11 -10 -10 -10 -10 -9 -9 -9 -9 -9 -9 -8 -7 -7 -6 -5 -4 -3 -3 -2 -1
-9 -9 -9 -8 -8 -8 -7 -8 -8 -9 -9 -9 -9 -9 -10 -10 -10 -11 -11 -12 -12 -12 -12 -11 -11 -11 -11 -11 -11 -11 -11 -11 -11 -11 -11 -10 -10 -9 -9 -9 -9 -9 -9 -8 -7 -6 -6 -5 -4 -3 -2 -2
-9 -9 -9 -8 -8 -8 -7 -8 -8 -8 -9 -10 -9 -10 -10 -10 -10 -10 -11 -12 -12 -12 -12 -12 -12 -12 -12 -11 -11 -11 -11 -11 -11 -11 -11 -11 -10 -10 -9 -9 -9 -9 -9 -9 -8 -7 -6 -5 -5 -4 -3 -3
-9 -9 -9 -9 -8 -8 -8 -8 -9 -9 -9 -10 -9 -10 -11 -11 -10 -11 -11 -12 -13 -13 -13 -13 -12 -12 -12 -12 -11 -11 -11 -11 -11 -11 -11 -11 -11 -11 -10 -10 -10 -10 -10 -10 -10 -9 -7 -6 -5 -5 -4 -3
-9 -9 -9 -9 -9 -9 -8 -8 -9 -10 -10 -10 -10 -10 -11 -11 -10 -11 -11 -12 -13 -13 -13 -13 -13 -13 -12 -12 -11 -11 -11 -11 -11 -11 -11 -11 -11 -11 -11 -11 -11 -10 -11 -11 -11 -10 -10 -9 -8 -6 -5 -4
-9 -9 -9 -9 -9 -9 -9 -9 -9 -10 -10 -10 -10 -10 -11 -11 -11 -11 -11 -12 -12 -13 -13 -13 -13 -13 -13 -12 -12 -11 -11 -11 -11 -11 -12 -12 -12 -12 -12 -12 -12 -12 -11 -12 -12 -11 -11 -11 -10 -9 -8 -6
-9 -9 -9 -9 -9 -9 -9 -9 -9 -10 -10 -10 -10 -10 -10 -11 -11 -11 -11 -12 -12 -13 -13 -13 -13 -13 -13 -12 -12 -12 -11 -11 -11 -11 -11 -12 -12 -12 -13 -13 -13 -13 -12 -12 -12 -13 -13 -12 -12 -11 -10 -8
-9 -9 -10 -10 -10 -9 -9 -9 -9 -10 -10 -10 -10 -10 -10 -10 -11 -11 -11 -11 -12 -12 -12 -12 -13 -13 -12 -12 -12 -12 -11 -11 -11 -11 -11 -12 -12 -13 -13 -13 -14 -14 -14 -14 -13 -13 -14 -13 -13 -13 -12 -11
-9 -9 -10 -10 -10 -10 -9 -9 -9 -10 -10 -10 -10 -9 -9 -10 -10 -11 -11 -11 -11 -11 -12 -12 -12 -12 -12 -12 -12 -12 -11 -11 -11 -11 -11 -12 -12 -13 -13 -13 -14 -14 -14 -14 -14 -14 -14 -14 -14 -14 -14 -14

ECMWFFLT2_850_temp_051.txt.gz
Temp
-2 -2 -2 -2 -2 -2 -2 -2 -3 -3 -2 -2 -2 -2 -1 -1 -1 -1 -1 -1 -2 -2 -2 -2 -2 -1 -1 -1 -1 -1 -1 -1 -1 -1 -0 0 0 1 1 2 2 3 3 2 3 4 6 6 7 8 9 9
-1 -2 -2 -2 -2 -2 -2 -2 -3 -3 -3 -3 -2 -2 -2 -2 -2 -2 -2 -2 -2 -2 -2 -2 -2 -2 -1 -1 -2 -1 -1 -1 -1 -1 -1 -0 -0 0 1 2 2 3 2 1 1 2 4 5 6 7 8 8
-1 -1 -2 -2 -2 -2 -2 -3 -3 -3 -3 -3 -3 -3 -3 -3 -2 -2 -2 -2 -2 -2 -3 -3 -3 -2 -2 -1 -2 -2 -1 -1 -1 -1 -1 -1 -0 -0 1 2 2 2 2 2 1 1 2 4 5 6 7 8
-2 -2 -2 -2 -2 -2 -2 -3 -4 -4 -4 -3 -3 -3 -3 -3 -3 -3 -3 -3 -3 -3 -3 -3 -3 -3 -3 -2 -2 -2 -1 -1 -1 -1 -2 -1 -1 -1 0 1 1 2 2 1 1 1 1 2 3 4 6 7
-2 -2 -2 -2 -2 -2 -3 -3 -4 -4 -4 -4 -3 -3 -3 -3 -3 -3 -3 -3 -3 -3 -3 -4 -4 -4 -4 -3 -2 -2 -2 -1 -2 -2 -2 -2 -1 -1 -1 0 1 1 1 1 1 1 1 1 2 3 4 5
-3 -3 -3 -3 -2 -3 -3 -3 -4 -4 -4 -4 -4 -4 -4 -4 -4 -4 -4 -4 -4 -4 -4 -4 -5 -4 -4 -4 -2 -2 -2 -2 -2 -2 -2 -2 -2 -1 -1 -1 0 1 1 1 1 1 1 1 1 3 3 4
-3 -3 -3 -3 -3 -3 -3 -4 -4 -4 -4 -4 -4 -4 -4 -4 -4 -4 -4 -5 -5 -5 -5 -5 -5 -5 -5 -4 -4 -2 -2 -3 -3 -2 -2 -2 -2 -2 -2 -1 -1 -0 0 0 1 1 1 1 1 2 2 3
-3 -3 -3 -3 -3 -3 -3 -4 -4 -4 -4 -4 -4 -4 -4 -5 -5 -5 -5 -5 -6 -6 -6 -6 -6 -6 -5 -5 -4 -4 -3 -3 -3 -3 -3 -3 -3 -2 -2 -2 -1 -1 -0 -0 -0 0 0 1 1 1 1 2
-3 -3 -3 -4 -4 -4 -4 -5 -5 -5 -5 -5 -5 -5 -5 -5 -5 -5 -6 -6 -6 -7 -7 -7 -7 -7 -7 -6 -5 -5 -4 -4 -4 -4 -3 -3 -3 -3 -3 -2 -2 -2 -1 -1 -1 -0 -0 0 1 1 1 2
-3 -3 -4 -4 -5 -5 -5 -5 -5 -5 -5 -5 -5 -5 -5 -5 -5 -6 -6 -6 -7 -7 -7 -7 -7 -8 -8 -7 -6 -6 -5 -5 -5 -4 -5 -4 -3 -3 -3 -3 -3 -2 -2 -2 -1 -1 -1 -0 0 1 1 1
-3 -4 -4 -4 -5 -5 -5 -5 -5 -5 -4 -4 -4 -4 -4 -5 -5 -6 -6 -7 -7 -7 -7 -8 -8 -8 -8 -8 -7 -7 -6 -6 -6 -5 -5 -5 -5 -4 -4 -4 -3 -3 -3 -2 -2 -1 -1 -1 -0 0 1 1
-3 -4 -4 -4 -5 -5 -5 -5 -5 -5 -4 -4 -4 -4 -4 -5 -5 -6 -6 -7 -7 -7 -8 -8 -8 -8 -9 -9 -8 -7 -7 -7 -7 -7 -6 -6 -6 -5 -5 -4 -4 -4 -3 -3 -3 -2 -2 -1 -1 -0 0 0
-3 -4 -4 -4 -4 -5 -5 -5 -5 -5 -5 -5 -5 -5 -5 -5 -5 -5 -6 -7 -7 -8 -8 -8 -8 -9 -9 -9 -9 -8 -7 -7 -8 -8 -7 -6 -6 -6 -6 -5 -5 -4 -4 -3 -3 -3 -2 -2 -2 -1 -0 0
-3 -4 -4 -4 -5 -5 -5 -5 -5 -5 -5 -5 -5 -6 -6 -6 -6 -6 -6 -7 -8 -8 -8 -9 -9 -9 -9 -9 -9 -9 -8 -7 -8 -8 -8 -7 -7 -7 -7 -6 -6 -5 -5 -4 -4 -3 -3 -2 -2 -2 -1 -1
-3 -4 -4 -5 -5 -5 -5 -5 -5 -5 -5 -5 -6 -6 -6 -6 -6 -6 -6 -7 -9 -9 -9 -9 -9 -9 -9 -9 -9 -9 -9 -8 -8 -8 -9 -8 -8 -7 -7 -7 -7 -6 -6 -5 -4 -4 -3 -3 -2 -2 -2 -1
-3 -3 -4 -4 -5 -5 -5 -5 -5 -5 -5 -6 -6 -6 -6 -7 -7 -6 -7 -8 -9 -10 -10 -10 -10 -10 -10 -10 -10 -10 -9 -9 -8 -8 -9 -9 -9 -8 -8 -8 -7 -7 -7 -6 -5 -5 -4 -3 -3 -2 -2 -2
-3 -3 -4 -4 -5 -5 -5 -5 -5 -5 -6 -6 -6 -6 -6 -7 -7 -7 -7 -8 -9 -10 -10 -10 -10 -10 -10 -10 -10 -10 -10 -9 -9 -9 -9 -9 -9 -9 -8 -8 -8 -7 -7 -7 -6 -5 -5 -4 -3 -3 -2 -2
-3 -4 -4 -4 -5 -5 -6 -6 -6 -6 -6 -6 -6 -6 -6 -7 -7 -8 -7 -8 -9 -9 -10 -10 -11 -11 -11 -10 -10 -10 -10 -10 -10 -9 -9 -9 -9 -9 -9 -8 -8 -8 -7 -7 -6 -6 -5 -5 -4 -3 -3 -2
-3 -4 -4 -4 -5 -5 -6 -6 -6 -7 -6 -6 -6 -6 -6 -7 -7 -8 -8 -8 -9 -9 -10 -10 -11 -11 -11 -11 -11 -11 -10 -10 -10 -10 -9 -9 -9 -9 -9 -9 -8 -8 -8 -7 -7 -6 -6 -5 -5 -4 -3 -3
-3 -4 -4 -4 -5 -5 -6 -6 -7 -7 -7 -7 -6 -6 -6 -6 -7 -8 -8 -8 -9 -9 -10 -10 -11 -11 -11 -11 -11 -11 -11 -11 -10 -10 -10 -9 -9 -10 -10 -9 -9 -9 -8 -8 -7 -6 -6 -5 -5 -4 -4 -3
-4 -4 -4 -5 -5 -5 -6 -7 -7 -7 -7 -7 -7 -6 -6 -7 -7 -8 -8 -9 -9 -9 -10 -10 -11 -11 -11 -11 -11 -11 -11 -11 -11 -11 -10 -10 -9 -10 -10 -10 -10 -9 -9 -8 -7 -6 -6 -5 -5 -4 -4 -3
-4 -4 -4 -5 -5 -5 -6 -7 -7 -7 -7 -7 -7 -7 -7 -7 -7 -8 -8 -9 -9 -9 -10 -10 -11 -11 -11 -11 -12 -12 -11 -11 -11 -11 -11 -10 -10 -10 -10 -10 -10 -9 -9 -9 -8 -7 -6 -5 -5 -4 -4 -4
-4 -4 -4 -5 -5 -5 -6 -7 -7 -7 -7 -7 -7 -7 -7 -7 -7 -8 -8 -9 -9 -9 -10 -10 -11 -11 -12 -12 -12 -12 -12 -12 -11 -11 -11 -11 -10 -10 -9 -10 -10 -10 -10 -9 -9 -8 -6 -5 -5 -4 -4 -4
-4 -4 -5 -5 -5 -5 -6 -7 -7 -7 -7 -8 -7 -7 -7 -7 -8 -8 -8 -9 -9 -9 -10 -10 -11 -11 -12 -12 -12 -12 -12 -12 -12 -11 -11 -11 -11 -10 -10 -9 -10 -10 -10 -10 -9 -9 -7 -6 -5 -5 -4 -4
-3 -4 -5 -5 -5 -5 -6 -6 -7 -7 -7 -8 -8 -7 -7 -8 -8 -8 -9 -9 -9 -9 -10 -10 -10 -11 -11 -12 -12 -13 -13 -12 -12 -12 -11 -11 -11 -10 -10 -9 -9 -10 -10 -10 -10 -9 -8 -7 -6 -5 -5 -4
-3 -4 -4 -5 -5 -6 -6 -6 -7 -7 -7 -8 -8 -8 -8 -8 -8 -9 -9 -9 -9 -9 -10 -10 -10 -10 -11 -12 -12 -13 -13 -13 -12 -12 -12 -11 -11 -10 -10 -10 -10 -10 -10 -11 -11 -10 -9 -8 -7 -6 -6 -5
-3 -4 -4 -5 -5 -6 -6 -6 -7 -7 -7 -8 -8 -8 -8 -8 -9 -9 -9 -9 -9 -9 -9 -10 -10 -10 -11 -11 -12 -12 -12 -13 -12 -12 -12 -11 -11 -10 -10 -10 -10 -10 -10 -11 -11 -11 -11 -10 -9 -7 -7 -6
-3 -4 -4 -5 -5 -6 -6 -6 -7 -8 -8 -8 -8 -8 -8 -9 -9 -9 -9 -9 -9 -9 -9 -10 -10 -10 -10 -11 -11 -12 -12 -12 -12 -12 -11 -11 -10 -10 -10 -10 -10 -10 -11 -11 -12 -12 -12 -11 -11 -10 -9 -7
-3 -4 -4 -5 -5 -6 -6 -6 -7 -8 -8 -8 -8 -8 -8 -9 -9 -9 -9 -9 -9 -9 -9 -10 -10 -10 -10 -10 -11 -11 -12 -12 -12 -12 -11 -11 -11 -10 -10 -10 -10 -10 -11 -11 -12 -13 -13 -12 -12 -12 -11 -9
-3 -4 -4 -4 -5 -6 -6 -7 -6 -8 -9 -9 -8 -8 -8 -8 -9 -9 -9 -9 -9 -10 -10 -10 -10 -10 -10 -10 -10 -11 -11 -11 -12 -11 -11 -11 -11 -11 -11 -10 -10 -10 -10 -11 -12 -13 -13 -13 -13 -13 -13 -13
-3 -3 -4 -4 -5 -6 -6 -7 -6 -7 -9 -9 -9 -8 -8 -8 -9 -9 -9 -9 -9 -10 -10 -10 -10 -10 -9 -10 -10 -10 -11 -11 -11 -11 -11 -11 -11 -11 -11 -11 -11 -10 -10 -11 -11 -12 -12 -13 -14 -14 -14 -14

ECMWFFLT2_850_temp_054.txt.gz
Temp
0 -0 -0 -0 -1 -1 -1 -1 -1 -2 -2 -2 -2 -1 -1 -1 -1 -0 -0 -0 0 0 0 1 0 -0 -1 -1 -1 -1 -1 -0 -0 0 1 1 0 0 0 1 2 2 3 3 3 3 4 5 5 5 4 4
0 -0 -0 -0 -0 -1 -1 -1 -1 -2 -2 -2 -2 -1 -1 -1 -1 -0 -0 -0 -0 -0 0 0 0 -0 -1 -1 -1 -2 -1 -1 -1 -1 0 0 0 -0 -0 1 1 2 2 2 3 3 3 4 5 5 5 4
0 -0 -0 -0 -0 -1 -1 -1 -1 -1 -2 -2 -1 -1 -1 -1 -1 -1 -0 -0 -0 0 0 0 0 -0 -1 -1 -2 -2 -2 -1 -1 -1 -1 0 0 -0 -0 0 0 1 1 2 2 3 3 4 4 4 4 4
-0 -0 -0 -0 -0 -1 -1 -1 -1 -1 -2 -1 -1 -0 -1 -1 -1 -1 -1 -0 -0 -0 0 0 0 -0 -0 -1 -2 -2 -2 -2 -2 -2 -1 -1 -0 -0 -0 -0 -0 0 0 1 2 2 3 3 4 4 4 4
-0 -0 -0 -1 -1 -1 -1 -1 -1 -1 -1 -1 -0 -0 -1 -1 -1 -1 -1 -1 -1 -1 -1 -1 -0 -0 -1 -1 -1 -2 -3 -2 -2 -2 -2 -1 -1 -1 -1 -1 -0 -0 -0 0 1 1 2 3 3 3 3 3
0 -0 -1 -1 -1 -1 -1 -1 -0 -1 -1 -0 0 -0 -1 -1 -2 -2 -2 -2 -2 -2 -2 -2 -1 -1 -1 -1 -2 -2 -3 -3 -3 -3 -2 -2 -2 -1 -1 -1 -1 -1 -0 -0 0 1 1 2 3 3 3 3
0 -0 -1 -1 -1 -1 -1 -1 -1 -1 -1 -0 0 -0 -1 -1 -1 -1 -2 -2 -2 -2 -2 -2 -2 -1 -1 -1 -1 -2 -3 -3 -3 -3 -3 -3 -3 -3 -2 -2 -2 -2 -1 -1 -1 -0 0 1 2 2 3 3
0 -0 -1 -1 -1 -1 -1 -1 -1 -1 -1 -1 -0 -0 -1 -1 -1 -1 -1 -2 -2 -3 -3 -3 -3 -2 -2 -2 -2 -2 -3 -4 -4 -4 -3 -3 -4 -4 -3 -3 -3 -3 -2 -2 -1 -1 -1 -0 1 1 2 2
0 -0 -1 -1 -1 -1 -2 -1 -1 -2 -1 -1 -1 -1 -1 -1 -1 -1 -1 -2 -2 -3 -4 -4 -4 -4 -4 -4 -4 -3 -4 -4 -4 -5 -4 -4 -4 -4 -4 -4 -4 -4 -3 -3 -2 -2 -2 -1 -0 0 1 2
1 -0 -1 -1 -1 -1 -2 -2 -2 -2 -2 -1 -1 -1 -1 -1 -1 -1 -1 -1 -2 -2 -3 -4 -4 -5 -5 -5 -5 -5 -5 -5 -5 -5 -5 -5 -5 -5 -5 -5 -5 -5 -4 -4 -3 -3 -2 -2 -1 -1 0 1
1 0 -1 -1 -1 -1 -2 -2 -2 -2 -2 -2 -2 -2 -2 -2 -2 -2 -1 -1 -1 -2 -3 -4 -5 -5 -5 -6 -6 -6 -6 -6 -6 -6 -6 -6 -6 -6 -6 -6 -5 -6 -5 -5 -4 -4 -3 -3 -2 -1 -1 -0
0 0 -1 -1 -1 -1 -2 -2 -2 -3 -2 -2 -2 -2 -2 -2 -2 -2 -2 -1 -1 -2 -2 -4 -5 -5 -6 -7 -7 -7 -7 -7 -7 -7 -7 -6 -6 -6 -6 -7 -6 -6 -6 -6 -5 -5 -4 -3 -3 -2 -2 -1
0 -0 -1 -1 -1 -2 -2 -2 -2 -3 -3 -3 -3 -3 -3 -2 -2 -2 -2 -2 -2 -2 -3 -4 -5 -6 -7 -7 -7 -8 -8 -8 -8 -8 -8 -7 -7 -7 -7 -7 -7 -6 -6 -6 -6 -6 -5 -4 -4 -3 -2 -2
0 -0 -1 -1 -1 -2 -2 -2 -3 -3 -3 -3 -3 -3 -3 -3 -3 -3 -3 -2 -3 -3 -3 -4 -5 -6 -7 -8 -8 -8 -8 -8 -8 -8 -8 -8 -7 -7 -8 -8 -8 -7 -7 -7 -7 -6 -6 -5 -4 -4 -3 -2
0 -0 -1 -1 -1 -1 -2 -2 -3 -3 -3 -3 -4 -4 -3 -3 -3 -3 -3 -3 -3 -4 -4 -4 -5 -6 -7 -8 -9 -9 -9 -9 -9 -9 -9 -8 -8 -8 -8 -8 -8 -8 -7 -7 -7 -7 -6 -6 -5 -4 -4 -3
0 0 -0 -1 -1 -2 -2 -2 -3 -3 -4 -4 -4 -4 -4 -3 -3 -3 -4 -3 -4 -4 -5 -5 -5 -6 -7 -8 -9 -9 -9 -9 -9 -9 -9 -9 -8 -8 -8 -8 -9 -8 -8 -7 -7 -7 -7 -7 -6 -5 -4 -3
1 0 -0 -1 -1 -2 -2 -2 -3 -3 -4 -4 -4 -4 -4 -4 -4 -4 -4 -4 -4 -5 -5 -6 -6 -7 -8 -8 -9 -9 -9 -9 -10 -10 -10 -9 -9 -9 -9 -9 -9 -9 -8 -8 -8 -7 -7 -7 -6 -6 -5 -4
0 0 -0 -1 -1 -1 -2 -2 -3 -3 -3 -4 -4 -4 -4 -4 -4 -4 -5 -4 -4 -5 -6 -6 -7 -8 -8 -9 -9 -9 -10 -10 -10 -10 -10 -10 -10 -9 -9 -10 -10 -9 -9 -8 -8 -7 -7 -7 -6 -6 -6 -5
0 0 -0 -1 -1 -1 -2 -2 -3 -3 -3 -4 -4 -4 -4 -4 -4 -4 -5 -5 -5 -5 -6 -7 -8 -8 -9 -9 -9 -9 -10 -11 -11 -11 -11 -10 -10 -10 -10 -10 -10 -10 -9 -9 -8 -7 -7 -6 -6 -6 -6 -5
1 0 -0 -0 -1 -1 -2 -2 -3 -3 -3 -4 -4 -5 -5 -5 -4 -5 -5 -5 -5 -6 -6 -7 -8 -9 -9 -9 -9 -10 -10 -11 -11 -11 -11 -11 -11 -11 -10 -10 -10 -10 -10 -9 -8 -8 -6 -6 -6 -6 -5 -5
1 0 -0 -0 -1 -1 -2 -2 -2 -3 -4 -4 -4 -5 -5 -5 -5 -5 -5 -5 -6 -6 -7 -7 -8 -8 -9 -9 -9 -9 -10 -11 -11 -12 -12 -11 -11 -11 -11 -10 -10 -10 -10 -10 -9 -8 -7 -6 -6 -5 -5 -5
1 1 -0 -0 -1 -1 -2 -2 -2 -3 -4 -4 -5 -5 -5 -5 -5 -5 -6 -6 -6 -6 -7 -7 -8 -8 -9 -9 -9 -9 -10 -11 -11 -12 -12 -12 -11 -11 -11 -11 -11 -10 -10 -10 -9 -8 -7 -7 -6 -6 -5 -5
1 1 0 -0 -1 -1 -2 -2 -2 -3 -3 -4 -5 -5 -5 -6 -6 -6 -6 -6 -6 -7 -7 -8 -8 -8 -9 -9 -9 -10 -10 -11 -12 -12 -12 -12 -11 -11 -11 -11 -11 -10 -10 -10 -9 -9 -8 -7 -6 -6 -5 -5
1 1 0 -0 -1 -1 -2 -2 -2 -2 -3 -4 -4 -5 -6 -6 -6 -7 -7 -7 -6 -7 -7 -8 -8 -9 -9 -9 -10 -10 -10 -11 -12 -12 -12 -12 -11 -11 -11 -11 -11 -11 -10 -10 -10 -9 -8 -7 -7 -6 -6 -5
2 1 1 -0 -1 -1 -2 -2 -2 -2 -3 -3 -4 -5 -6 -6 -6 -7 -7 -7 -7 -7 -7 -8 -8 -9 -9 -9 -10 -10 -10 -11 -11 -11 -11 -11 -11 -10 -10 -10 -11 -11 -10 -10 -10 -10 -8 -7 -7 -7 -7 -6
2 2 1 -0 -1 -2 -2 -2 -2 -2 -3 -4 -4 -5 -6 -6 -6 -7 -7 -7 -7 -7 -7 -8 -8 -9 -9 -9 -10 -10 -10 -10 -11 -11 -11 -11 -10 -10 -10 -10 -10 -10 -10 -11 -11 -11 -9 -8 -8 -8 -8 -8
2 2 1 -0 -1 -2 -2 -2 -2 -2 -3 -3 -4 -5 -6 -6 -6 -7 -7 -7 -8 -7 -7 -8 -8 -9 -9 -9 -9 -10 -10 -10 -10 -10 -11 -11 -10 -10 -10 -10 -10 -10 -10 -11 -11 -11 -10 -9 -9 -8 -8 -8
2 1 0 -1 -1 -2 -2 -2 -2 -2 -2 -3 -4 -5 -5 -6 -6 -7 -7 -7 -8 -8 -8 -8 -8 -9 -9 -9 -9 -10 -10 -10 -10 -10 -10 -10 -10 -10 -10 -10 -11 -10 -10 -10 -11 -12 -10 -10 -10 -9 -8 -8
2 1 0 -1 -1 -2 -2 -2 -2 -2 -2 -3 -4 -5 -5 -6 -6 -7 -7 -8 -8 -8 -8 -8 -8 -9 -9 -9 -9 -9 -10 -10 -10 -10 -10 -10 -10 -10 -10 -10 -10 -10 -10 -10 -11 -12 -11 -11 -10 -10 -10 -9
2 1 1 -0 -1 -1 -2 -2 -2 -2 -2 -3 -4 -5 -5 -6 -6 -7 -7 -8 -8 -8 -9 -9 -9 -9 -9 -9 -10 -10 -10 -10 -10 -10 -10 -10 -10 -10 -10 -10 -10 -10 -11 -11 -11 -11 -12 -11 -11 -11 -12 -11
2 1 1 0 -0 -1 -2 -2 -2 -2 -3 -3 -4 -5 -5 -6 -7 -7 -8 -8 -8 -9 -9 -9 -9 -9 -9 -9 -10 -10 -10 -10 -10 -10 -10 -10 -10 -11 -10 -10 -10 -10 -11 -12 -12 -11 -12 -12 -12 -12 -12 -13